Time,TemperatureF,DewpointF,PressureIn,WindDirection,WindDirectionDegrees,WindSpeedMPH,WindSpeedGustMPH,Humidity,HourlyPrecipIn,Conditions,Clouds,dailyrainin,SoftwareType,DateUTC
2013-05-19 00:00:00,60.7,44.9,30.03,ESE,107,0.0,0.0,56,0.00,,---,0.00,VWS V14.01,2013-05-19 04:00:00,
2013-05-19 00:01:00,60.7,44.9,30.03,ESE,116,0.0,1.0,56,0.00,,---,0.00,VWS V14.01,2013-05-19 04:01:00,
2013-05-19 00:06:00,60.7,44.9,30.03,East,97,0.0,3.0,56,0.00,,---,0.00,VWS V14.01,2013-05-19 04:06:00,
2013-05-19 00:11:00,60.5,45.2,30.03,ESE,123,2.0,2.0,57,0.00,,---,0.00,VWS V14.01,2013-05-19 04:11:00,
2013-05-19 00:16:00,60.4,45.1,30.03,ESE,114,0.0,1.0,57,0.00,,---,0.00,VWS V14.01,2013-05-19 04:16:00,
2013-05-19 00:21:00,60.5,45.2,30.03,ESE,107,0.0,0.0,57,0.00,,---,0.00,VWS V14.01,2013-05-19 04:21:00,
2013-05-19 00:22:00,60.4,45.1,30.03,SE,139,1.0,1.0,57,0.00,,---,0.00,VWS V14.01,2013-05-19 04:22:00,
2013-05-19 00:26:00,60.4,45.6,30.03,SE,144,0.0,0.0,58,0.00,,---,0.00,VWS V14.01,2013-05-19 04:26:00,
2013-05-19 00:27:00,60.4,45.6,30.03,SE,144,0.0,0.0,58,0.00,,---,0.00,VWS V14.01,2013-05-19 04:27:00,
2013-05-19 00:31:00,59.9,45.1,30.03,SE,144,0.0,0.0,58,0.00,,---,0.00,VWS V14.01,2013-05-19 04:31:00,
2013-05-19 00:32:00,59.9,45.5,30.03,SE,144,0.0,0.0,59,0.00,,---,0.00,VWS V14.01,2013-05-19 04:32:00,
2013-05-19 00:36:00,59.5,44.7,30.03,SSE,160,0.0,0.0,58,0.00,,---,0.00,VWS V14.01,2013-05-19 04:36:00,
2013-05-19 00:37:00,59.5,44.7,30.03,SSE,160,0.0,0.0,58,0.00,,---,0.00,VWS V14.01,2013-05-19 04:37:00,
2013-05-19 00:38:00,59.5,45.2,30.03,SSE,160,0.0,0.0,59,0.00,,---,0.00,VWS V14.01,2013-05-19 04:38:00,
2013-05-19 00:41:00,59.4,45.1,30.03,ENE,73,0.0,1.0,59,0.00,,---,0.00,VWS V14.01,2013-05-19 04:41:00,
2013-05-19 00:42:00,59.4,45.1,30.03,ENE,76,2.0,2.0,59,0.00,,---,0.00,VWS V14.01,2013-05-19 04:42:00,
2013-05-19 00:43:00,59.4,44.6,30.03,ESE,120,0.0,1.0,58,0.00,,---,0.00,VWS V14.01,2013-05-19 04:43:00,
2013-05-19 00:46:00,59.5,45.2,30.03,ESE,117,0.0,1.0,59,0.00,,---,0.00,VWS V14.01,2013-05-19 04:46:00,
2013-05-19 00:47:00,59.5,45.2,30.03,ESE,117,0.0,0.0,59,0.00,,---,0.00,VWS V14.01,2013-05-19 04:47:00,
2013-05-19 00:48:00,59.5,45.2,30.03,ESE,117,0.0,0.0,59,0.00,,---,0.00,VWS V14.01,2013-05-19 04:48:00,
2013-05-19 00:51:00,59.3,45.0,30.03,ESE,116,0.0,0.0,59,0.00,,---,0.00,VWS V14.01,2013-05-19 04:51:00,
2013-05-19 00:52:00,59.3,45.0,30.03,ESE,117,0.0,0.0,59,0.00,,---,0.00,VWS V14.01,2013-05-19 04:52:00,
2013-05-19 00:53:00,59.2,44.9,30.03,ESE,116,0.0,0.0,59,0.00,,---,0.00,VWS V14.01,2013-05-19 04:53:00,
2013-05-19 00:57:00,58.9,44.6,30.03,ESE,117,0.0,0.0,59,0.00,,---,0.00,VWS V14.01,2013-05-19 04:57:00,
2013-05-19 00:58:00,58.8,45.0,30.03,ESE,117,0.0,0.0,60,0.00,,---,0.00,VWS V14.01,2013-05-19 04:58:00,
2013-05-19 01:02:00,58.5,44.7,30.03,ESE,117,0.0,0.0,60,0.00,,---,0.00,VWS V14.01,2013-05-19 05:02:00,
2013-05-19 01:03:00,58.4,45.0,30.03,ESE,117,0.0,0.0,61,0.00,,---,0.00,VWS V14.01,2013-05-19 05:03:00,
2013-05-19 01:07:00,58.3,44.9,30.03,ESE,117,0.0,0.0,61,0.00,,---,0.00,VWS V14.01,2013-05-19 05:07:00,
2013-05-19 01:08:00,58.3,44.9,30.03,ESE,117,0.0,0.0,61,0.00,,---,0.00,VWS V14.01,2013-05-19 05:08:00,
2013-05-19 01:09:00,58.3,44.9,30.03,ESE,117,0.0,0.0,61,0.00,,---,0.00,VWS V14.01,2013-05-19 05:09:00,
2013-05-19 01:12:00,58.2,45.3,30.03,ESE,117,0.0,0.0,62,0.00,,---,0.00,VWS V14.01,2013-05-19 05:12:00,
2013-05-19 01:13:00,58.3,44.9,30.02,ESE,116,0.0,0.0,61,0.00,,---,0.00,VWS V14.01,2013-05-19 05:13:00,
2013-05-19 01:14:00,58.2,45.3,30.02,ESE,117,0.0,0.0,62,0.00,,---,0.00,VWS V14.01,2013-05-19 05:14:00,
2013-05-19 01:17:00,58.1,45.6,30.02,ESE,117,0.0,0.0,63,0.00,,---,0.00,VWS V14.01,2013-05-19 05:17:00,
2013-05-19 01:18:00,58.0,45.1,30.02,ESE,116,0.0,0.0,62,0.00,,---,0.00,VWS V14.01,2013-05-19 05:18:00,
2013-05-19 01:19:00,58.0,45.1,30.02,ESE,117,0.0,1.0,62,0.00,,---,0.00,VWS V14.01,2013-05-19 05:19:00,
2013-05-19 01:22:00,57.8,44.9,30.02,ESE,117,0.0,0.0,62,0.00,,---,0.00,VWS V14.01,2013-05-19 05:22:00,
2013-05-19 01:23:00,57.7,44.8,30.02,ESE,117,0.0,0.0,62,0.00,,---,0.00,VWS V14.01,2013-05-19 05:23:00,
2013-05-19 01:24:00,57.7,44.8,30.02,ESE,117,0.0,0.0,62,0.00,,---,0.00,VWS V14.01,2013-05-19 05:24:00,
2013-05-19 01:27:00,57.5,45.0,30.02,ESE,116,0.0,0.0,63,0.00,,---,0.00,VWS V14.01,2013-05-19 05:27:00,
2013-05-19 01:28:00,57.5,45.0,30.02,ESE,116,0.0,0.0,63,0.00,,---,0.00,VWS V14.01,2013-05-19 05:28:00,
2013-05-19 01:29:00,57.5,45.0,30.02,ESE,117,0.0,0.0,63,0.00,,---,0.00,VWS V14.01,2013-05-19 05:29:00,
2013-05-19 01:32:00,57.5,45.0,30.02,ESE,117,0.0,0.0,63,0.00,,---,0.00,VWS V14.01,2013-05-19 05:32:00,
2013-05-19 01:33:00,57.5,45.0,30.02,ESE,117,0.0,0.0,63,0.00,,---,0.00,VWS V14.01,2013-05-19 05:33:00,
2013-05-19 01:34:00,57.6,45.1,30.02,ESE,117,0.0,0.0,63,0.00,,---,0.00,VWS V14.01,2013-05-19 05:34:00,
2013-05-19 01:37:00,57.5,45.0,30.02,NNE,17,0.0,1.0,63,0.00,,---,0.00,VWS V14.01,2013-05-19 05:37:00,
2013-05-19 01:38:00,57.5,45.0,30.02,NNE,17,0.0,0.0,63,0.00,,---,0.00,VWS V14.01,2013-05-19 05:38:00,
2013-05-19 01:39:00,57.5,45.0,30.02,NNE,17,0.0,0.0,63,0.00,,---,0.00,VWS V14.01,2013-05-19 05:39:00,
2013-05-19 01:42:00,57.4,45.3,30.02,North,360,0.0,0.0,64,0.00,,---,0.00,VWS V14.01,2013-05-19 05:42:00,
2013-05-19 01:43:00,57.4,45.3,30.01,North,360,0.0,0.0,64,0.00,,---,0.00,VWS V14.01,2013-05-19 05:43:00,
2013-05-19 01:44:00,57.4,45.8,30.01,North,360,0.0,0.0,65,0.00,,---,0.00,VWS V14.01,2013-05-19 05:44:00,
2013-05-19 01:47:00,57.2,46.0,30.01,North,360,0.0,0.0,66,0.00,,---,0.00,VWS V14.01,2013-05-19 05:47:00,
2013-05-19 01:49:00,57.1,45.9,30.01,North,360,0.0,0.0,66,0.00,,---,0.00,VWS V14.01,2013-05-19 05:49:00,
2013-05-19 01:50:00,57.0,46.2,30.01,North,360,0.0,0.0,67,0.00,,---,0.00,VWS V14.01,2013-05-19 05:50:00,
2013-05-19 01:53:00,56.7,46.3,30.01,North,360,0.0,0.0,68,0.00,,---,0.00,VWS V14.01,2013-05-19 05:53:00,
2013-05-19 01:54:00,56.7,46.3,30.01,North,360,0.0,0.0,68,0.00,,---,0.00,VWS V14.01,2013-05-19 05:54:00,
2013-05-19 01:56:00,56.5,46.1,30.01,North,360,0.0,0.0,68,0.00,,---,0.00,VWS V14.01,2013-05-19 05:56:00,
2013-05-19 01:58:00,56.2,45.8,30.01,North,360,0.0,0.0,68,0.00,,---,0.00,VWS V14.01,2013-05-19 05:58:00,
2013-05-19 01:59:00,56.1,45.7,30.01,North,360,0.0,0.0,68,0.00,,---,0.00,VWS V14.01,2013-05-19 05:59:00,
2013-05-19 02:00:00,56.0,46.0,30.00,North,360,0.0,0.0,69,0.00,,---,0.00,VWS V14.01,2013-05-19 06:00:00,
2013-05-19 02:01:00,55.9,45.9,30.00,North,360,0.0,0.0,69,0.00,,---,0.00,VWS V14.01,2013-05-19 06:01:00,
2013-05-19 02:03:00,55.6,45.6,30.00,North,360,0.0,0.0,69,0.00,,---,0.00,VWS V14.01,2013-05-19 06:03:00,
2013-05-19 02:04:00,55.6,45.6,30.00,North,360,0.0,0.0,69,0.00,,---,0.00,VWS V14.01,2013-05-19 06:04:00,
2013-05-19 02:05:00,55.5,45.5,30.00,North,360,0.0,0.0,69,0.00,,---,0.00,VWS V14.01,2013-05-19 06:05:00,
2013-05-19 02:06:00,55.4,45.4,30.00,North,360,0.0,0.0,69,0.00,,---,0.00,VWS V14.01,2013-05-19 06:06:00,
2013-05-19 02:08:00,55.4,45.4,30.00,North,360,0.0,0.0,69,0.00,,---,0.00,VWS V14.01,2013-05-19 06:08:00,
2013-05-19 02:09:00,55.4,45.4,30.00,North,360,0.0,0.0,69,0.00,,---,0.00,VWS V14.01,2013-05-19 06:09:00,
2013-05-19 02:10:00,55.4,45.4,30.00,North,360,0.0,0.0,69,0.00,,---,0.00,VWS V14.01,2013-05-19 06:10:00,
2013-05-19 02:11:00,55.4,45.0,30.00,North,360,0.0,0.0,68,0.00,,---,0.00,VWS V14.01,2013-05-19 06:11:00,
2013-05-19 02:13:00,55.5,45.1,30.00,North,360,0.0,0.0,68,0.00,,---,0.00,VWS V14.01,2013-05-19 06:13:00,
2013-05-19 02:14:00,55.5,45.1,29.99,North,360,0.0,0.0,68,0.00,,---,0.00,VWS V14.01,2013-05-19 06:14:00,
2013-05-19 02:15:00,55.6,45.6,29.99,North,360,0.0,0.0,69,0.00,,---,0.00,VWS V14.01,2013-05-19 06:15:00,
2013-05-19 02:16:00,55.7,45.3,30.00,North,1,0.0,0.0,68,0.00,,---,0.00,VWS V14.01,2013-05-19 06:16:00,
2013-05-19 02:19:00,55.8,45.4,29.99,North,360,0.0,0.0,68,0.00,,---,0.00,VWS V14.01,2013-05-19 06:19:00,
2013-05-19 02:20:00,55.7,45.3,29.99,North,360,0.0,0.0,68,0.00,,---,0.00,VWS V14.01,2013-05-19 06:20:00,
2013-05-19 02:21:00,55.7,45.3,30.00,North,360,0.0,0.0,68,0.00,,---,0.00,VWS V14.01,2013-05-19 06:21:00,
2013-05-19 02:24:00,55.5,45.1,29.99,North,360,0.0,0.0,68,0.00,,---,0.00,VWS V14.01,2013-05-19 06:24:00,
2013-05-19 02:25:00,55.4,45.0,29.99,North,360,0.0,0.0,68,0.00,,---,0.00,VWS V14.01,2013-05-19 06:25:00,
2013-05-19 02:26:00,55.3,45.3,29.99,NNE,14,0.0,0.0,69,0.00,,---,0.00,VWS V14.01,2013-05-19 06:26:00,
2013-05-19 02:29:00,55.4,45.4,29.99,NNE,14,0.0,0.0,69,0.00,,---,0.00,VWS V14.01,2013-05-19 06:29:00,
2013-05-19 02:30:00,55.4,45.0,29.99,ENE,66,0.0,1.0,68,0.00,,---,0.00,VWS V14.01,2013-05-19 06:30:00,
2013-05-19 02:31:00,55.4,45.0,29.99,ENE,66,0.0,1.0,68,0.00,,---,0.00,VWS V14.01,2013-05-19 06:31:00,
2013-05-19 02:32:00,55.5,45.5,29.99,ENE,66,0.0,0.0,69,0.00,,---,0.00,VWS V14.01,2013-05-19 06:32:00,
2013-05-19 02:34:00,55.8,45.4,29.99,ENE,66,0.0,0.0,68,0.00,,---,0.00,VWS V14.01,2013-05-19 06:34:00,
2013-05-19 02:35:00,55.9,45.1,29.99,ENE,66,0.0,0.0,67,0.00,,---,0.00,VWS V14.01,2013-05-19 06:35:00,
2013-05-19 02:36:00,56.0,45.2,29.99,ENE,66,0.0,0.0,67,0.00,,---,0.00,VWS V14.01,2013-05-19 06:36:00,
2013-05-19 02:37:00,56.1,45.3,29.99,ENE,66,1.0,1.0,67,0.00,,---,0.00,VWS V14.01,2013-05-19 06:37:00,
2013-05-19 02:39:00,56.5,45.7,29.99,ESE,113,0.0,1.0,67,0.00,,---,0.00,VWS V14.01,2013-05-19 06:39:00,
2013-05-19 02:41:00,56.7,45.5,29.99,ESE,113,0.0,0.0,66,0.00,,---,0.00,VWS V14.01,2013-05-19 06:41:00,
2013-05-19 02:42:00,56.8,45.6,29.99,ESE,113,0.0,0.0,66,0.00,,---,0.00,VWS V14.01,2013-05-19 06:42:00,
2013-05-19 02:44:00,56.9,45.7,29.98,ESE,113,0.0,0.0,66,0.00,,---,0.00,VWS V14.01,2013-05-19 06:44:00,
2013-05-19 02:46:00,56.8,45.6,29.98,ESE,113,0.0,0.0,66,0.00,,---,0.00,VWS V14.01,2013-05-19 06:46:00,
2013-05-19 02:47:00,56.7,45.5,29.98,ESE,113,0.0,0.0,66,0.00,,---,0.00,VWS V14.01,2013-05-19 06:47:00,
2013-05-19 02:49:00,56.5,45.3,29.98,ESE,113,0.0,0.0,66,0.00,,---,0.00,VWS V14.01,2013-05-19 06:49:00,
2013-05-19 02:51:00,56.4,45.6,29.98,ESE,113,0.0,0.0,67,0.00,,---,0.00,VWS V14.01,2013-05-19 06:51:00,
2013-05-19 02:52:00,56.2,45.4,29.98,ESE,113,0.0,0.0,67,0.00,,---,0.00,VWS V14.01,2013-05-19 06:52:00,
2013-05-19 02:54:00,56.1,45.7,29.98,ESE,113,0.0,0.0,68,0.00,,---,0.00,VWS V14.01,2013-05-19 06:54:00,
2013-05-19 02:56:00,56.0,45.6,29.98,ESE,113,0.0,0.0,68,0.00,,---,0.00,VWS V14.01,2013-05-19 06:56:00,
2013-05-19 02:57:00,55.9,45.5,29.98,ESE,113,0.0,0.0,68,0.00,,---,0.00,VWS V14.01,2013-05-19 06:57:00,
2013-05-19 02:59:00,55.7,45.7,29.98,ESE,113,0.0,0.0,69,0.00,,---,0.00,VWS V14.01,2013-05-19 06:59:00,
2013-05-19 03:01:00,55.6,45.6,29.98,ESE,113,0.0,0.0,69,0.00,,---,0.00,VWS V14.01,2013-05-19 07:01:00,
2013-05-19 03:02:00,55.5,45.5,29.98,ESE,113,0.0,0.0,69,0.00,,---,0.00,VWS V14.01,2013-05-19 07:02:00,
2013-05-19 03:04:00,55.3,45.3,29.98,ESE,113,0.0,0.0,69,0.00,,---,0.00,VWS V14.01,2013-05-19 07:04:00,
2013-05-19 03:06:00,55.2,45.2,29.99,ESE,113,0.0,0.0,69,0.00,,---,0.00,VWS V14.01,2013-05-19 07:06:00,
2013-05-19 03:07:00,55.1,45.5,29.99,ESE,113,0.0,0.0,70,0.00,,---,0.00,VWS V14.01,2013-05-19 07:07:00,
2013-05-19 03:09:00,55.0,45.4,29.99,ESE,113,0.0,0.0,70,0.00,,---,0.00,VWS V14.01,2013-05-19 07:09:00,
2013-05-19 03:11:00,54.9,45.3,29.98,ESE,113,0.0,0.0,70,0.00,,---,0.00,VWS V14.01,2013-05-19 07:11:00,
2013-05-19 03:12:00,54.9,45.7,29.99,ESE,113,0.0,0.0,71,0.00,,---,0.00,VWS V14.01,2013-05-19 07:12:00,
2013-05-19 03:14:00,54.9,45.7,29.99,ESE,113,0.0,0.0,71,0.00,,---,0.00,VWS V14.01,2013-05-19 07:14:00,
2013-05-19 03:16:00,54.9,45.7,29.99,ESE,113,0.0,0.0,71,0.00,,---,0.00,VWS V14.01,2013-05-19 07:16:00,
2013-05-19 03:17:00,54.9,45.7,29.98,ESE,113,1.0,1.0,71,0.00,,---,0.00,VWS V14.01,2013-05-19 07:17:00,
2013-05-19 03:20:00,55.0,45.8,29.98,ESE,113,0.0,0.0,71,0.00,,---,0.00,VWS V14.01,2013-05-19 07:20:00,
2013-05-19 03:21:00,55.0,45.8,29.98,ESE,113,0.0,0.0,71,0.00,,---,0.00,VWS V14.01,2013-05-19 07:21:00,
2013-05-19 03:22:00,55.0,45.8,29.98,ESE,113,0.0,0.0,71,0.00,,---,0.00,VWS V14.01,2013-05-19 07:22:00,
2013-05-19 03:23:00,55.0,45.4,29.98,ESE,113,0.0,0.0,70,0.00,,---,0.00,VWS V14.01,2013-05-19 07:23:00,
2013-05-19 03:25:00,54.9,45.7,29.98,ESE,113,0.0,0.0,71,0.00,,---,0.00,VWS V14.01,2013-05-19 07:25:00,
2013-05-19 03:26:00,54.9,45.7,29.98,ESE,113,0.0,0.0,71,0.00,,---,0.00,VWS V14.01,2013-05-19 07:26:00,
2013-05-19 03:27:00,54.8,45.6,29.98,ESE,113,0.0,0.0,71,0.00,,---,0.00,VWS V14.01,2013-05-19 07:27:00,
2013-05-19 03:28:00,54.8,45.6,29.98,ESE,113,0.0,0.0,71,0.00,,---,0.00,VWS V14.01,2013-05-19 07:28:00,
2013-05-19 03:30:00,54.7,45.5,29.98,ESE,113,0.0,0.0,71,0.00,,---,0.00,VWS V14.01,2013-05-19 07:30:00,
2013-05-19 03:31:00,54.6,45.4,29.98,ESE,113,0.0,0.0,71,0.00,,---,0.00,VWS V14.01,2013-05-19 07:31:00,
2013-05-19 03:32:00,54.6,45.8,29.98,ESE,113,0.0,0.0,72,0.00,,---,0.00,VWS V14.01,2013-05-19 07:32:00,
2013-05-19 03:33:00,54.5,45.7,29.98,ESE,113,0.0,0.0,72,0.00,,---,0.00,VWS V14.01,2013-05-19 07:33:00,
2013-05-19 03:36:00,54.3,45.5,29.98,ESE,113,0.0,0.0,72,0.00,,---,0.00,VWS V14.01,2013-05-19 07:36:00,
2013-05-19 03:37:00,54.2,45.8,29.98,ESE,113,0.0,0.0,73,0.00,,---,0.00,VWS V14.01,2013-05-19 07:37:00,
2013-05-19 03:38:00,54.2,45.8,29.98,ESE,113,0.0,0.0,73,0.00,,---,0.00,VWS V14.01,2013-05-19 07:38:00,
2013-05-19 03:41:00,54.1,45.7,29.98,ESE,113,0.0,0.0,73,0.00,,---,0.00,VWS V14.01,2013-05-19 07:41:00,
2013-05-19 03:42:00,54.0,45.5,29.98,ESE,113,0.0,0.0,73,0.00,,---,0.00,VWS V14.01,2013-05-19 07:42:00,
2013-05-19 03:43:00,54.0,45.5,29.98,ESE,113,0.0,0.0,73,0.00,,---,0.00,VWS V14.01,2013-05-19 07:43:00,
2013-05-19 03:46:00,53.9,45.8,29.98,ESE,113,0.0,0.0,74,0.00,,---,0.00,VWS V14.01,2013-05-19 07:46:00,
2013-05-19 03:47:00,53.8,45.7,29.98,ESE,113,0.0,0.0,74,0.00,,---,0.00,VWS V14.01,2013-05-19 07:47:00,
2013-05-19 03:48:00,53.8,46.1,29.98,ESE,113,1.0,1.0,75,0.00,,---,0.00,VWS V14.01,2013-05-19 07:48:00,
2013-05-19 03:51:00,54.0,45.9,29.98,ESE,113,0.0,0.0,74,0.00,,---,0.00,VWS V14.01,2013-05-19 07:51:00,
2013-05-19 03:52:00,54.1,46.0,29.98,ESE,113,0.0,0.0,74,0.00,,---,0.00,VWS V14.01,2013-05-19 07:52:00,
2013-05-19 03:53:00,54.1,46.0,29.98,ESE,108,0.0,1.0,74,0.00,,---,0.00,VWS V14.01,2013-05-19 07:53:00,
2013-05-19 03:56:00,54.4,46.3,29.99,ESE,108,0.0,0.0,74,0.00,,---,0.00,VWS V14.01,2013-05-19 07:56:00,
2013-05-19 03:57:00,54.5,46.0,29.99,ESE,108,0.0,0.0,73,0.00,,---,0.00,VWS V14.01,2013-05-19 07:57:00,
2013-05-19 03:58:00,54.5,46.0,29.99,ESE,108,0.0,0.0,73,0.00,,---,0.00,VWS V14.01,2013-05-19 07:58:00,
2013-05-19 03:59:00,54.5,46.0,29.99,ESE,108,0.0,0.0,73,0.00,,---,0.00,VWS V14.01,2013-05-19 07:59:00,
2013-05-19 04:01:00,54.4,46.3,29.99,ESE,108,0.0,0.0,74,0.00,,---,0.00,VWS V14.01,2013-05-19 08:01:00,
2013-05-19 04:02:00,54.4,46.3,29.99,ESE,108,0.0,0.0,74,0.00,,---,0.00,VWS V14.01,2013-05-19 08:02:00,
2013-05-19 04:03:00,54.4,46.3,29.99,ESE,108,0.0,0.0,74,0.00,,---,0.00,VWS V14.01,2013-05-19 08:03:00,
2013-05-19 04:04:00,54.3,46.2,29.99,ESE,108,0.0,0.0,74,0.00,,---,0.00,VWS V14.01,2013-05-19 08:04:00,
2013-05-19 04:06:00,54.2,46.1,29.99,ESE,108,0.0,0.0,74,0.00,,---,0.00,VWS V14.01,2013-05-19 08:06:00,
2013-05-19 04:07:00,54.1,46.0,29.99,ESE,108,0.0,0.0,74,0.00,,---,0.00,VWS V14.01,2013-05-19 08:07:00,
2013-05-19 04:08:00,54.0,46.3,29.99,ESE,108,0.0,0.0,75,0.00,,---,0.00,VWS V14.01,2013-05-19 08:08:00,
2013-05-19 04:09:00,54.0,46.3,29.99,ESE,108,0.0,0.0,75,0.00,,---,0.00,VWS V14.01,2013-05-19 08:09:00,
2013-05-19 04:11:00,53.8,46.1,29.98,ESE,108,0.0,0.0,75,0.00,,---,0.00,VWS V14.01,2013-05-19 08:11:00,
2013-05-19 04:12:00,53.7,46.0,29.98,ESE,108,0.0,0.0,75,0.00,,---,0.00,VWS V14.01,2013-05-19 08:12:00,
2013-05-19 04:13:00,53.6,46.2,29.98,ESE,108,0.0,0.0,76,0.00,,---,0.00,VWS V14.01,2013-05-19 08:13:00,
2013-05-19 04:14:00,53.6,46.2,29.98,ESE,108,0.0,0.0,76,0.00,,---,0.00,VWS V14.01,2013-05-19 08:14:00,
2013-05-19 04:16:00,53.4,46.0,29.98,ESE,108,0.0,0.0,76,0.00,,---,0.00,VWS V14.01,2013-05-19 08:16:00,
2013-05-19 04:17:00,53.3,45.9,29.98,ESE,108,0.0,0.0,76,0.00,,---,0.00,VWS V14.01,2013-05-19 08:17:00,
2013-05-19 04:18:00,53.2,46.2,29.98,ESE,108,0.0,0.0,77,0.00,,---,0.00,VWS V14.01,2013-05-19 08:18:00,
2013-05-19 04:19:00,53.2,46.2,29.98,ESE,108,0.0,0.0,77,0.00,,---,0.00,VWS V14.01,2013-05-19 08:19:00,
2013-05-19 04:22:00,53.1,46.1,29.98,ESE,108,0.0,0.0,77,0.00,,---,0.00,VWS V14.01,2013-05-19 08:22:00,
2013-05-19 04:23:00,53.1,46.1,29.98,ESE,108,0.0,0.0,77,0.00,,---,0.00,VWS V14.01,2013-05-19 08:23:00,
2013-05-19 04:24:00,53.0,46.0,29.98,ESE,108,0.0,0.0,77,0.00,,---,0.00,VWS V14.01,2013-05-19 08:24:00,
2013-05-19 04:27:00,53.2,46.5,29.99,ESE,108,0.0,0.0,78,0.00,,---,0.00,VWS V14.01,2013-05-19 08:27:00,
2013-05-19 04:28:00,53.3,46.6,29.99,ESE,108,0.0,0.0,78,0.00,,---,0.00,VWS V14.01,2013-05-19 08:28:00,
2013-05-19 04:29:00,53.4,47.1,29.99,ESE,108,0.0,0.0,79,0.00,,---,0.00,VWS V14.01,2013-05-19 08:29:00,
2013-05-19 04:32:00,53.6,46.9,29.99,ESE,108,0.0,0.0,78,0.00,,---,0.00,VWS V14.01,2013-05-19 08:32:00,
2013-05-19 04:33:00,53.6,46.9,29.99,ESE,108,0.0,0.0,78,0.00,,---,0.00,VWS V14.01,2013-05-19 08:33:00,
2013-05-19 04:34:00,53.6,47.3,29.99,ESE,108,0.0,0.0,79,0.00,,---,0.00,VWS V14.01,2013-05-19 08:34:00,
2013-05-19 04:38:00,53.6,46.9,29.99,ESE,108,0.0,0.0,78,0.00,,---,0.00,VWS V14.01,2013-05-19 08:38:00,
2013-05-19 04:39:00,53.6,46.9,29.99,ESE,108,0.0,0.0,78,0.00,,---,0.00,VWS V14.01,2013-05-19 08:39:00,
2013-05-19 04:40:00,53.6,46.9,29.99,ESE,108,0.0,0.0,78,0.00,,---,0.00,VWS V14.01,2013-05-19 08:40:00,
2013-05-19 04:43:00,53.4,46.7,29.99,ESE,108,0.0,0.0,78,0.00,,---,0.00,VWS V14.01,2013-05-19 08:43:00,
2013-05-19 04:44:00,53.3,46.6,29.99,ESE,108,0.0,0.0,78,0.00,,---,0.00,VWS V14.01,2013-05-19 08:44:00,
2013-05-19 04:45:00,53.3,46.6,29.99,ESE,108,0.0,0.0,78,0.00,,---,0.00,VWS V14.01,2013-05-19 08:45:00,
2013-05-19 04:48:00,53.1,46.8,29.99,ESE,108,0.0,0.0,79,0.00,,---,0.00,VWS V14.01,2013-05-19 08:48:00,
2013-05-19 04:49:00,53.0,46.7,29.99,ESE,108,0.0,0.0,79,0.00,,---,0.00,VWS V14.01,2013-05-19 08:49:00,
2013-05-19 04:50:00,52.9,46.6,29.99,ESE,108,0.0,0.0,79,0.00,,---,0.00,VWS V14.01,2013-05-19 08:50:00,
2013-05-19 04:53:00,52.8,46.5,29.99,ESE,108,0.0,0.0,79,0.00,,---,0.00,VWS V14.01,2013-05-19 08:53:00,
2013-05-19 04:54:00,52.7,46.7,29.99,ESE,108,0.0,0.0,80,0.00,,---,0.00,VWS V14.01,2013-05-19 08:54:00,
2013-05-19 04:55:00,52.7,47.0,29.99,ESE,108,0.0,0.0,81,0.00,,---,0.00,VWS V14.01,2013-05-19 08:55:00,
2013-05-19 04:58:00,52.7,47.4,29.99,ESE,108,0.0,0.0,82,0.00,,---,0.00,VWS V14.01,2013-05-19 08:58:00,
2013-05-19 04:59:00,52.7,47.4,30.00,ESE,108,0.0,0.0,82,0.00,,---,0.00,VWS V14.01,2013-05-19 08:59:00,
2013-05-19 05:00:00,52.8,47.5,30.00,ESE,108,0.0,0.0,82,0.00,,---,0.00,VWS V14.01,2013-05-19 09:00:00,
2013-05-19 05:03:00,52.7,47.0,29.99,ESE,108,0.0,0.0,81,0.00,,---,0.00,VWS V14.01,2013-05-19 09:03:00,
2013-05-19 05:04:00,52.6,46.9,29.99,ESE,108,0.0,0.0,81,0.00,,---,0.00,VWS V14.01,2013-05-19 09:04:00,
2013-05-19 05:05:00,52.6,46.9,29.99,ESE,108,0.0,0.0,81,0.00,,---,0.00,VWS V14.01,2013-05-19 09:05:00,
2013-05-19 05:08:00,52.4,47.1,29.99,ESE,108,0.0,0.0,82,0.00,,---,0.00,VWS V14.01,2013-05-19 09:08:00,
2013-05-19 05:09:00,52.3,47.0,29.99,ESE,108,0.0,0.0,82,0.00,,---,0.00,VWS V14.01,2013-05-19 09:09:00,
2013-05-19 05:10:00,52.2,46.9,29.99,ESE,108,0.0,0.0,82,0.00,,---,0.00,VWS V14.01,2013-05-19 09:10:00,
2013-05-19 05:13:00,52.1,47.1,29.99,ESE,108,0.0,0.0,83,0.00,,---,0.00,VWS V14.01,2013-05-19 09:13:00,
2013-05-19 05:14:00,52.1,47.1,29.99,ESE,108,0.0,0.0,83,0.00,,---,0.00,VWS V14.01,2013-05-19 09:14:00,
2013-05-19 05:15:00,52.1,47.1,29.99,ESE,108,0.0,0.0,83,0.00,,---,0.00,VWS V14.01,2013-05-19 09:15:00,
2013-05-19 05:19:00,51.8,46.8,29.99,ESE,108,0.0,0.0,83,0.00,,---,0.00,VWS V14.01,2013-05-19 09:19:00,
2013-05-19 05:20:00,51.8,46.8,29.99,ESE,108,0.0,0.0,83,0.00,,---,0.00,VWS V14.01,2013-05-19 09:20:00,
2013-05-19 05:21:00,51.7,46.7,29.99,ESE,108,0.0,0.0,83,0.00,,---,0.00,VWS V14.01,2013-05-19 09:21:00,
2013-05-19 05:24:00,51.6,46.6,30.00,ESE,108,0.0,0.0,83,0.00,,---,0.00,VWS V14.01,2013-05-19 09:24:00,
2013-05-19 05:25:00,51.5,46.5,30.00,ESE,108,0.0,0.0,83,0.00,,---,0.00,VWS V14.01,2013-05-19 09:25:00,
2013-05-19 05:26:00,51.5,46.5,30.00,ESE,108,0.0,0.0,83,0.00,,---,0.00,VWS V14.01,2013-05-19 09:26:00,
2013-05-19 05:29:00,51.4,46.7,29.99,ESE,108,0.0,0.0,84,0.00,,---,0.00,VWS V14.01,2013-05-19 09:29:00,
2013-05-19 05:30:00,51.4,46.7,30.00,ESE,108,0.0,0.0,84,0.00,,---,0.00,VWS V14.01,2013-05-19 09:30:00,
2013-05-19 05:31:00,51.3,46.6,29.99,ESE,108,0.0,0.0,84,0.00,,---,0.00,VWS V14.01,2013-05-19 09:31:00,
2013-05-19 05:34:00,51.3,46.6,30.00,ESE,108,0.0,0.0,84,0.00,,---,0.00,VWS V14.01,2013-05-19 09:34:00,
2013-05-19 05:35:00,51.2,46.5,30.00,ESE,108,0.0,0.0,84,0.00,,---,0.00,VWS V14.01,2013-05-19 09:35:00,
2013-05-19 05:36:00,51.2,46.5,30.00,ESE,108,0.0,0.0,84,0.00,,---,0.00,VWS V14.01,2013-05-19 09:36:00,
2013-05-19 05:39:00,51.1,46.8,30.00,ESE,108,0.0,0.0,85,0.00,,---,0.00,VWS V14.01,2013-05-19 09:39:00,
2013-05-19 05:40:00,51.0,46.7,30.00,ESE,108,0.0,0.0,85,0.00,,---,0.00,VWS V14.01,2013-05-19 09:40:00,
2013-05-19 05:41:00,51.0,46.7,30.00,ESE,108,0.0,0.0,85,0.00,,---,0.00,VWS V14.01,2013-05-19 09:41:00,
2013-05-19 05:42:00,51.0,46.7,30.00,ESE,108,0.0,0.0,85,0.00,,---,0.00,VWS V14.01,2013-05-19 09:42:00,
2013-05-19 05:44:00,50.9,46.6,29.99,ESE,108,0.0,0.0,85,0.00,,---,0.00,VWS V14.01,2013-05-19 09:44:00,
2013-05-19 05:45:00,50.9,46.9,29.99,ESE,108,0.0,0.0,86,0.00,,---,0.00,VWS V14.01,2013-05-19 09:45:00,
2013-05-19 05:46:00,50.9,46.9,29.99,ESE,108,0.0,0.0,86,0.00,,---,0.00,VWS V14.01,2013-05-19 09:46:00,
2013-05-19 05:47:00,50.9,46.9,30.00,ESE,108,0.0,0.0,86,0.00,,---,0.00,VWS V14.01,2013-05-19 09:47:00,
2013-05-19 05:49:00,50.9,46.9,30.00,ESE,108,0.0,0.0,86,0.00,,---,0.00,VWS V14.01,2013-05-19 09:49:00,
2013-05-19 05:50:00,50.8,46.8,30.00,NNW,331,0.0,0.0,86,0.00,,---,0.00,VWS V14.01,2013-05-19 09:50:00,
2013-05-19 05:51:00,50.9,46.9,30.00,NNW,331,0.0,0.0,86,0.00,,---,0.00,VWS V14.01,2013-05-19 09:51:00,
2013-05-19 05:52:00,50.9,46.9,30.00,NNW,331,0.0,0.0,86,0.00,,---,0.00,VWS V14.01,2013-05-19 09:52:00,
2013-05-19 05:54:00,51.0,47.0,30.00,NNW,331,0.0,0.0,86,0.00,,---,0.00,VWS V14.01,2013-05-19 09:54:00,
2013-05-19 05:56:00,51.0,47.3,30.00,NNW,331,0.0,0.0,87,0.00,,---,0.00,VWS V14.01,2013-05-19 09:56:00,
2013-05-19 05:57:00,51.1,47.4,30.00,NNW,331,0.0,0.0,87,0.00,,---,0.00,VWS V14.01,2013-05-19 09:57:00,
2013-05-19 06:00:00,51.1,47.4,30.00,NNW,331,0.0,0.0,87,0.00,,---,0.00,VWS V14.01,2013-05-19 10:00:00,
2013-05-19 06:01:00,51.1,47.4,30.00,NNW,331,0.0,0.0,87,0.00,,---,0.00,VWS V14.01,2013-05-19 10:01:00,
2013-05-19 06:02:00,51.1,47.4,30.00,NNW,331,0.0,0.0,87,0.00,,---,0.00,VWS V14.01,2013-05-19 10:02:00,
2013-05-19 06:05:00,51.2,47.5,30.00,NNW,331,0.0,0.0,87,0.00,,---,0.00,VWS V14.01,2013-05-19 10:05:00,
2013-05-19 06:06:00,51.2,47.5,30.00,NNW,331,0.0,0.0,87,0.00,,---,0.00,VWS V14.01,2013-05-19 10:06:00,
2013-05-19 06:07:00,51.2,47.5,30.00,NNW,331,0.0,0.0,87,0.00,,---,0.00,VWS V14.01,2013-05-19 10:07:00,
2013-05-19 06:10:00,51.3,47.6,30.00,NNW,331,0.0,0.0,87,0.00,,---,0.00,VWS V14.01,2013-05-19 10:10:00,
2013-05-19 06:11:00,51.3,47.6,30.01,NNW,331,0.0,0.0,87,0.00,,---,0.00,VWS V14.01,2013-05-19 10:11:00,
2013-05-19 06:12:00,51.4,47.7,30.00,NNW,331,0.0,0.0,87,0.00,,---,0.00,VWS V14.01,2013-05-19 10:12:00,
2013-05-19 06:16:00,51.3,47.6,30.00,NNW,331,0.0,0.0,87,0.00,,---,0.00,VWS V14.01,2013-05-19 10:16:00,
2013-05-19 06:17:00,51.3,47.6,30.00,NNW,331,0.0,0.0,87,0.00,,---,0.00,VWS V14.01,2013-05-19 10:17:00,
2013-05-19 06:21:00,51.2,47.5,30.00,NNW,331,0.0,0.0,87,0.00,,---,0.00,VWS V14.01,2013-05-19 10:21:00,
2013-05-19 06:22:00,51.2,47.5,30.00,NNW,331,0.0,0.0,87,0.00,,---,0.00,VWS V14.01,2013-05-19 10:22:00,
2013-05-19 06:23:00,51.2,47.5,30.00,NNW,331,0.0,0.0,87,0.00,,---,0.00,VWS V14.01,2013-05-19 10:23:00,
2013-05-19 06:26:00,51.1,47.4,30.00,NNW,331,0.0,0.0,87,0.00,,---,0.00,VWS V14.01,2013-05-19 10:26:00,
2013-05-19 06:27:00,51.1,47.4,30.00,NNW,331,0.0,0.0,87,0.00,,---,0.00,VWS V14.01,2013-05-19 10:27:00,
2013-05-19 06:28:00,51.1,47.4,30.00,NNW,331,0.0,0.0,87,0.00,,---,0.00,VWS V14.01,2013-05-19 10:28:00,
2013-05-19 06:31:00,51.1,47.4,30.00,NNW,331,0.0,0.0,87,0.00,,---,0.00,VWS V14.01,2013-05-19 10:31:00,
2013-05-19 06:32:00,51.0,47.3,30.01,NNW,331,0.0,0.0,87,0.00,,---,0.00,VWS V14.01,2013-05-19 10:32:00,
2013-05-19 06:33:00,51.1,47.4,30.01,NNW,331,0.0,0.0,87,0.00,,---,0.00,VWS V14.01,2013-05-19 10:33:00,
2013-05-19 06:36:00,51.1,47.7,30.01,NNW,331,0.0,0.0,88,0.00,,---,0.00,VWS V14.01,2013-05-19 10:36:00,
2013-05-19 06:37:00,51.2,47.8,30.01,NNW,331,0.0,0.0,88,0.00,,---,0.00,VWS V14.01,2013-05-19 10:37:00,
2013-05-19 06:38:00,51.2,47.8,30.01,NNW,331,0.0,0.0,88,0.00,,---,0.00,VWS V14.01,2013-05-19 10:38:00,
2013-05-19 06:41:00,51.2,47.8,30.01,NNW,331,0.0,0.0,88,0.00,,---,0.00,VWS V14.01,2013-05-19 10:41:00,
2013-05-19 06:42:00,51.3,47.9,30.01,NNW,331,0.0,0.0,88,0.00,,---,0.00,VWS V14.01,2013-05-19 10:42:00,
2013-05-19 06:43:00,51.3,47.9,30.01,NNW,331,0.0,0.0,88,0.00,,---,0.00,VWS V14.01,2013-05-19 10:43:00,
2013-05-19 06:46:00,51.4,48.0,30.01,NNW,331,0.0,0.0,88,0.00,,---,0.00,VWS V14.01,2013-05-19 10:46:00,
2013-05-19 06:47:00,51.4,48.0,30.01,NNW,331,0.0,0.0,88,0.00,,---,0.00,VWS V14.01,2013-05-19 10:47:00,
2013-05-19 06:48:00,51.4,48.0,30.00,NNW,331,0.0,0.0,88,0.00,,---,0.00,VWS V14.01,2013-05-19 10:48:00,
2013-05-19 06:51:00,51.5,48.1,30.00,NNW,331,0.0,0.0,88,0.00,,---,0.00,VWS V14.01,2013-05-19 10:51:00,
2013-05-19 06:52:00,51.5,48.1,30.00,NNW,331,0.0,0.0,88,0.00,,---,0.00,VWS V14.01,2013-05-19 10:52:00,
2013-05-19 06:53:00,51.5,48.1,30.00,NNW,331,0.0,0.0,88,0.00,,---,0.00,VWS V14.01,2013-05-19 10:53:00,
2013-05-19 06:56:00,51.7,48.3,30.01,NNW,331,0.0,0.0,88,0.00,,---,0.00,VWS V14.01,2013-05-19 10:56:00,
2013-05-19 06:57:00,51.7,48.3,30.00,NNW,331,0.0,0.0,88,0.00,,---,0.00,VWS V14.01,2013-05-19 10:57:00,
2013-05-19 06:58:00,51.8,48.4,30.00,NNW,331,0.0,0.0,88,0.00,,---,0.00,VWS V14.01,2013-05-19 10:58:00,
2013-05-19 07:01:00,52.1,49.0,30.00,NNW,331,0.0,0.0,89,0.00,,---,0.00,VWS V14.01,2013-05-19 11:01:00,
2013-05-19 07:02:00,52.1,49.0,30.00,NNW,331,0.0,0.0,89,0.00,,---,0.00,VWS V14.01,2013-05-19 11:02:00,
2013-05-19 07:03:00,52.3,48.9,30.00,NNW,331,0.0,0.0,88,0.00,,---,0.00,VWS V14.01,2013-05-19 11:03:00,
2013-05-19 07:07:00,52.7,49.0,30.00,NNW,331,0.0,0.0,87,0.00,,---,0.00,VWS V14.01,2013-05-19 11:07:00,
2013-05-19 07:08:00,52.8,49.0,30.01,NNW,337,1.0,1.0,87,0.00,,---,0.00,VWS V14.01,2013-05-19 11:08:00,
2013-05-19 07:12:00,53.9,48.9,30.01,ESE,120,0.0,0.0,83,0.00,,---,0.00,VWS V14.01,2013-05-19 11:12:00,
2013-05-19 07:13:00,54.5,48.8,30.01,ESE,120,0.0,0.0,81,0.00,,---,0.00,VWS V14.01,2013-05-19 11:13:00,
2013-05-19 07:17:00,55.9,49.5,30.01,SE,124,0.0,0.0,79,0.00,,---,0.00,VWS V14.01,2013-05-19 11:17:00,
2013-05-19 07:18:00,56.3,49.5,30.01,ESE,108,1.0,2.0,78,0.00,,---,0.00,VWS V14.01,2013-05-19 11:18:00,
2013-05-19 07:22:00,57.3,49.1,30.01,East,91,1.0,1.0,74,0.00,,---,0.00,VWS V14.01,2013-05-19 11:22:00,
2013-05-19 07:23:00,57.4,49.5,30.01,ENE,67,0.0,1.0,75,0.00,,---,0.00,VWS V14.01,2013-05-19 11:23:00,
2013-05-19 07:24:00,57.6,49.8,30.01,ENE,67,1.0,1.0,75,0.00,,---,0.00,VWS V14.01,2013-05-19 11:24:00,
2013-05-19 07:27:00,58.3,50.1,30.01,ENE,67,0.0,1.0,74,0.00,,---,0.00,VWS V14.01,2013-05-19 11:27:00,
2013-05-19 07:28:00,58.4,49.8,30.01,ENE,67,1.0,1.0,73,0.00,,---,0.00,VWS V14.01,2013-05-19 11:28:00,
2013-05-19 07:29:00,58.6,49.6,30.01,ENE,58,0.0,1.0,72,0.00,,---,0.00,VWS V14.01,2013-05-19 11:29:00,
2013-05-19 07:33:00,59.1,49.7,30.01,East,92,0.0,1.0,71,0.00,,---,0.00,VWS V14.01,2013-05-19 11:33:00,
2013-05-19 07:34:00,59.3,49.1,30.01,ESE,106,0.0,2.0,69,0.00,,---,0.00,VWS V14.01,2013-05-19 11:34:00,
2013-05-19 07:38:00,59.7,49.5,30.01,SE,130,0.0,2.0,69,0.00,,---,0.00,VWS V14.01,2013-05-19 11:38:00,
2013-05-19 07:39:00,59.8,49.2,30.01,East,99,0.0,3.0,68,0.00,,---,0.00,VWS V14.01,2013-05-19 11:39:00,
2013-05-19 07:43:00,60.1,49.1,30.01,ENE,63,3.0,3.0,67,0.00,,---,0.00,VWS V14.01,2013-05-19 11:43:00,
2013-05-19 07:44:00,60.2,49.2,30.00,ESE,102,2.0,2.0,67,0.00,,---,0.00,VWS V14.01,2013-05-19 11:44:00,
2013-05-19 07:48:00,60.7,49.3,30.00,East,87,1.0,2.0,66,0.00,,---,0.00,VWS V14.01,2013-05-19 11:48:00,
2013-05-19 07:49:00,60.8,49.4,30.00,ENE,72,2.0,2.0,66,0.00,,---,0.00,VWS V14.01,2013-05-19 11:49:00,
2013-05-19 07:53:00,61.1,49.7,30.00,ESE,113,4.0,4.0,66,0.00,,---,0.00,VWS V14.01,2013-05-19 11:53:00,
2013-05-19 07:54:00,61.1,49.3,30.00,East,94,2.0,2.0,65,0.00,,---,0.00,VWS V14.01,2013-05-19 11:54:00,
2013-05-19 07:58:00,61.4,50.0,30.00,ESE,113,1.0,2.0,66,0.00,,---,0.00,VWS V14.01,2013-05-19 11:58:00,
2013-05-19 07:59:00,61.5,49.6,30.00,ESE,111,0.0,1.0,65,0.00,,---,0.00,VWS V14.01,2013-05-19 11:59:00,
2013-05-19 08:03:00,62.1,50.2,30.00,East,92,0.0,0.0,65,0.00,,---,0.00,VWS V14.01,2013-05-19 12:03:00,
2013-05-19 08:04:00,62.2,50.7,30.00,East,88,1.0,1.0,66,0.00,,---,0.00,VWS V14.01,2013-05-19 12:04:00,
2013-05-19 08:08:00,62.8,50.9,30.00,East,99,0.0,0.0,65,0.00,,---,0.00,VWS V14.01,2013-05-19 12:08:00,
2013-05-19 08:09:00,62.9,51.0,30.00,South,171,1.0,3.0,65,0.00,,---,0.00,VWS V14.01,2013-05-19 12:09:00,
2013-05-19 08:10:00,62.9,50.1,30.00,SE,141,0.0,1.0,63,0.00,,---,0.00,VWS V14.01,2013-05-19 12:10:00,
2013-05-19 08:13:00,63.2,50.4,30.00,North,4,2.0,2.0,63,0.00,,---,0.00,VWS V14.01,2013-05-19 12:13:00,
2013-05-19 08:14:00,63.1,50.3,30.00,SE,130,2.0,3.0,63,0.00,,---,0.00,VWS V14.01,2013-05-19 12:14:00,
2013-05-19 08:15:00,63.1,50.7,30.00,SE,130,0.0,0.0,64,0.00,,---,0.00,VWS V14.01,2013-05-19 12:15:00,
2013-05-19 08:18:00,63.3,50.5,30.00,ENE,63,1.0,2.0,63,0.00,,---,0.00,VWS V14.01,2013-05-19 12:18:00,
2013-05-19 08:19:00,63.3,50.5,30.00,East,97,2.0,2.0,63,0.00,,---,0.00,VWS V14.01,2013-05-19 12:19:00,
2013-05-19 08:20:00,63.3,50.1,30.00,SE,127,2.0,3.0,62,0.00,,---,0.00,VWS V14.01,2013-05-19 12:20:00,
2013-05-19 08:23:00,63.3,50.1,30.00,ESE,116,1.0,3.0,62,0.00,,---,0.00,VWS V14.01,2013-05-19 12:23:00,
2013-05-19 08:24:00,63.2,50.4,29.99,ESE,123,0.0,2.0,63,0.00,,---,0.00,VWS V14.01,2013-05-19 12:24:00,
2013-05-19 08:25:00,63.3,50.5,29.99,ESE,123,0.0,2.0,63,0.00,,---,0.00,VWS V14.01,2013-05-19 12:25:00,
2013-05-19 08:28:00,63.8,51.8,29.99,East,94,1.0,1.0,65,0.00,,---,0.00,VWS V14.01,2013-05-19 12:28:00,
2013-05-19 08:30:00,64.1,52.1,29.99,SSE,163,0.0,1.0,65,0.00,,---,0.00,VWS V14.01,2013-05-19 12:30:00,
2013-05-19 08:34:00,64.9,51.6,30.00,ESE,118,0.0,2.0,62,0.00,,---,0.00,VWS V14.01,2013-05-19 12:34:00,
2013-05-19 08:35:00,65.0,51.7,30.00,ESE,118,1.0,1.0,62,0.00,,---,0.00,VWS V14.01,2013-05-19 12:35:00,
2013-05-19 08:39:00,65.4,51.2,30.00,ENE,62,4.0,4.0,60,0.00,,---,0.00,VWS V14.01,2013-05-19 12:39:00,
2013-05-19 08:40:00,65.3,51.5,30.00,SE,139,0.0,2.0,61,0.00,,---,0.00,VWS V14.01,2013-05-19 12:40:00,
2013-05-19 08:44:00,65.3,51.5,30.00,SSE,159,0.0,0.0,61,0.00,,---,0.00,VWS V14.01,2013-05-19 12:44:00,
2013-05-19 08:45:00,65.5,51.7,30.00,SSE,159,0.0,0.0,61,0.00,,---,0.00,VWS V14.01,2013-05-19 12:45:00,
2013-05-19 08:49:00,65.9,51.6,30.00,SSE,149,1.0,1.0,60,0.00,,---,0.00,VWS V14.01,2013-05-19 12:49:00,
2013-05-19 08:50:00,66.1,52.3,30.00,SSE,148,0.0,0.0,61,0.00,,---,0.00,VWS V14.01,2013-05-19 12:50:00,
2013-05-19 08:51:00,66.1,52.3,30.00,ESE,121,1.0,1.0,61,0.00,,---,0.00,VWS V14.01,2013-05-19 12:51:00,
2013-05-19 08:55:00,66.6,52.8,30.00,SE,142,0.0,0.0,61,0.00,,---,0.00,VWS V14.01,2013-05-19 12:55:00,
2013-05-19 08:56:00,66.9,52.6,30.00,SE,142,0.0,0.0,60,0.00,,---,0.00,VWS V14.01,2013-05-19 12:56:00,
2013-05-19 09:00:00,67.6,52.3,30.00,East,80,0.0,0.0,58,0.00,,---,0.00,VWS V14.01,2013-05-19 13:00:00,
2013-05-19 09:01:00,67.6,52.8,30.00,North,1,0.0,0.0,59,0.00,,---,0.00,VWS V14.01,2013-05-19 13:01:00,
2013-05-19 09:05:00,67.9,53.1,30.00,WNW,303,1.0,1.0,59,0.00,,---,0.00,VWS V14.01,2013-05-19 13:05:00,
2013-05-19 09:06:00,67.8,53.9,30.00,NW,307,0.0,1.0,61,0.00,,---,0.00,VWS V14.01,2013-05-19 13:06:00,
2013-05-19 09:10:00,68.4,54.0,30.00,SW,214,1.0,1.0,60,0.00,,---,0.00,VWS V14.01,2013-05-19 13:10:00,
2013-05-19 09:11:00,68.6,53.2,30.00,ESE,104,1.0,1.0,58,0.00,,---,0.00,VWS V14.01,2013-05-19 13:11:00,
2013-05-19 09:15:00,68.8,53.0,30.00,NNE,19,2.0,2.0,57,0.00,,---,0.00,VWS V14.01,2013-05-19 13:15:00,
2013-05-19 09:16:00,68.8,53.0,29.99,East,96,2.0,2.0,57,0.00,,---,0.00,VWS V14.01,2013-05-19 13:16:00,
2013-05-19 09:20:00,68.6,53.2,30.00,SE,134,0.0,1.0,58,0.00,,---,0.00,VWS V14.01,2013-05-19 13:20:00,
2013-05-19 09:21:00,68.7,53.8,30.00,SE,146,2.0,2.0,59,0.00,,---,0.00,VWS V14.01,2013-05-19 13:21:00,
2013-05-19 09:25:00,69.2,53.8,30.00,ENE,76,1.0,2.0,58,0.00,,---,0.00,VWS V14.01,2013-05-19 13:25:00,
2013-05-19 09:26:00,69.3,54.8,30.00,SE,136,1.0,1.0,60,0.00,,---,0.00,VWS V14.01,2013-05-19 13:26:00,
2013-05-19 09:27:00,69.3,53.4,30.00,SE,124,1.0,1.0,57,0.00,,---,0.00,VWS V14.01,2013-05-19 13:27:00,
2013-05-19 09:31:00,69.5,54.1,30.00,SE,132,0.0,0.0,58,0.00,,---,0.00,VWS V14.01,2013-05-19 13:31:00,
2013-05-19 09:32:00,69.6,55.1,30.00,SSE,157,1.0,1.0,60,0.00,,---,0.00,VWS V14.01,2013-05-19 13:32:00,
2013-05-19 09:36:00,69.8,54.4,30.00,NNE,18,1.0,1.0,58,0.00,,---,0.00,VWS V14.01,2013-05-19 13:36:00,
2013-05-19 09:37:00,69.8,54.8,30.00,SSE,165,3.0,3.0,59,0.00,,---,0.00,VWS V14.01,2013-05-19 13:37:00,
2013-05-19 09:41:00,69.8,55.3,30.00,West,265,0.0,0.0,60,0.00,,---,0.00,VWS V14.01,2013-05-19 13:41:00,
2013-05-19 09:42:00,69.9,55.4,30.00,West,263,0.0,1.0,60,0.00,,---,0.00,VWS V14.01,2013-05-19 13:42:00,
2013-05-19 09:46:00,70.4,55.9,30.00,SE,141,1.0,1.0,60,0.00,,---,0.00,VWS V14.01,2013-05-19 13:46:00,
2013-05-19 09:47:00,70.6,56.1,30.00,SE,141,0.0,1.0,60,0.00,,---,0.00,VWS V14.01,2013-05-19 13:47:00,
2013-05-19 09:51:00,71.3,57.2,29.99,WSW,241,2.0,2.0,61,0.00,,---,0.00,VWS V14.01,2013-05-19 13:51:00,
2013-05-19 09:52:00,71.4,56.3,29.99,SW,227,2.0,3.0,59,0.00,,---,0.00,VWS V14.01,2013-05-19 13:52:00,
2013-05-19 09:56:00,71.9,56.3,29.99,SE,145,2.0,2.0,58,0.00,,---,0.00,VWS V14.01,2013-05-19 13:56:00,
2013-05-19 09:57:00,71.9,55.9,29.99,SSE,160,2.0,2.0,57,0.00,,---,0.00,VWS V14.01,2013-05-19 13:57:00,
2013-05-19 10:01:00,72.5,56.4,29.99,SSE,161,1.0,1.0,57,0.00,,---,0.00,VWS V14.01,2013-05-19 14:01:00,
2013-05-19 10:02:00,72.5,56.9,29.99,ENE,67,1.0,1.0,58,0.00,,---,0.00,VWS V14.01,2013-05-19 14:02:00,
2013-05-19 10:06:00,72.8,56.7,29.99,SSE,153,1.0,2.0,57,0.00,,---,0.00,VWS V14.01,2013-05-19 14:06:00,
2013-05-19 10:07:00,72.9,57.3,29.99,SSE,163,0.0,0.0,58,0.00,,---,0.00,VWS V14.01,2013-05-19 14:07:00,
2013-05-19 10:11:00,72.8,57.7,29.99,East,87,1.0,2.0,59,0.00,,---,0.00,VWS V14.01,2013-05-19 14:11:00,
2013-05-19 10:12:00,72.8,57.2,29.99,ENE,75,4.0,4.0,58,0.00,,---,0.00,VWS V14.01,2013-05-19 14:12:00,
2013-05-19 10:16:00,72.4,57.8,29.99,SE,141,1.0,2.0,60,0.00,,---,0.00,VWS V14.01,2013-05-19 14:16:00,
2013-05-19 10:17:00,72.4,57.3,29.99,SE,138,0.0,0.0,59,0.00,,---,0.00,VWS V14.01,2013-05-19 14:17:00,
2013-05-19 10:21:00,73.5,58.3,29.99,SE,145,0.0,1.0,59,0.00,,---,0.00,VWS V14.01,2013-05-19 14:21:00,
2013-05-19 10:22:00,73.6,58.9,29.99,WSW,239,1.0,1.0,60,0.00,,---,0.00,VWS V14.01,2013-05-19 14:22:00,
2013-05-19 10:23:00,73.8,58.1,29.99,ENE,67,2.0,4.0,58,0.00,,---,0.00,VWS V14.01,2013-05-19 14:23:00,
2013-05-19 10:26:00,73.3,57.2,29.99,NNE,12,1.0,3.0,57,0.00,,---,0.00,VWS V14.01,2013-05-19 14:26:00,
2013-05-19 10:27:00,73.3,57.7,29.99,NNE,14,0.0,1.0,58,0.00,,---,0.00,VWS V14.01,2013-05-19 14:27:00,
2013-05-19 10:28:00,73.3,57.7,29.99,NNE,14,0.0,1.0,58,0.00,,---,0.00,VWS V14.01,2013-05-19 14:28:00,
2013-05-19 10:31:00,73.5,58.8,29.99,SE,139,1.0,3.0,60,0.00,,---,0.00,VWS V14.01,2013-05-19 14:31:00,
2013-05-19 10:32:00,73.6,58.4,29.99,ESE,116,0.0,1.0,59,0.00,,---,0.00,VWS V14.01,2013-05-19 14:32:00,
2013-05-19 10:33:00,73.6,58.4,29.99,ESE,117,0.0,1.0,59,0.00,,---,0.00,VWS V14.01,2013-05-19 14:33:00,
2013-05-19 10:37:00,74.4,59.6,29.99,South,171,0.0,1.0,60,0.00,,---,0.00,VWS V14.01,2013-05-19 14:37:00,
2013-05-19 10:38:00,74.7,59.9,29.99,SSE,168,0.0,0.0,60,0.00,,---,0.00,VWS V14.01,2013-05-19 14:38:00,
2013-05-19 10:39:00,75.1,60.8,29.99,ENE,78,3.0,3.0,61,0.00,,---,0.00,VWS V14.01,2013-05-19 14:39:00,
2013-05-19 10:42:00,75.3,59.0,29.99,SSW,212,0.0,3.0,57,0.00,,---,0.00,VWS V14.01,2013-05-19 14:42:00,
2013-05-19 10:43:00,75.3,59.5,29.99,East,94,3.0,3.0,58,0.00,,---,0.00,VWS V14.01,2013-05-19 14:43:00,
2013-05-19 10:44:00,75.4,58.6,29.98,East,87,0.0,0.0,56,0.00,,---,0.00,VWS V14.01,2013-05-19 14:44:00,
2013-05-19 10:47:00,75.3,59.5,29.98,NNW,336,1.0,1.0,58,0.00,,---,0.00,VWS V14.01,2013-05-19 14:47:00,
2013-05-19 10:48:00,75.4,60.1,29.98,ESE,117,3.0,3.0,59,0.00,,---,0.00,VWS V14.01,2013-05-19 14:48:00,
2013-05-19 10:49:00,75.5,59.7,29.98,ESE,114,2.0,3.0,58,0.00,,---,0.00,VWS V14.01,2013-05-19 14:49:00,
2013-05-19 10:52:00,75.6,59.3,29.98,SE,134,0.0,1.0,57,0.00,,---,0.00,VWS V14.01,2013-05-19 14:52:00,
2013-05-19 10:53:00,75.6,60.3,29.98,East,90,2.0,2.0,59,0.00,,---,0.00,VWS V14.01,2013-05-19 14:53:00,
2013-05-19 10:54:00,75.6,59.8,29.98,ESE,111,1.0,3.0,58,0.00,,---,0.00,VWS V14.01,2013-05-19 14:54:00,
2013-05-19 10:57:00,75.5,59.2,29.98,East,101,1.0,2.0,57,0.00,,---,0.00,VWS V14.01,2013-05-19 14:57:00,
2013-05-19 10:58:00,75.4,59.1,29.98,SSW,206,2.0,2.0,57,0.00,,---,0.00,VWS V14.01,2013-05-19 14:58:00,
2013-05-19 10:59:00,75.4,59.6,29.98,South,175,2.0,2.0,58,0.00,,---,0.00,VWS V14.01,2013-05-19 14:59:00,
2013-05-19 11:02:00,75.9,59.6,29.98,ENE,60,2.0,3.0,57,0.00,,---,0.00,VWS V14.01,2013-05-19 15:02:00,
2013-05-19 11:03:00,76.0,60.7,29.98,ESE,123,0.0,2.0,59,0.00,,---,0.00,VWS V14.01,2013-05-19 15:03:00,
2013-05-19 11:04:00,76.0,59.7,29.98,ESE,108,0.0,1.0,57,0.00,,---,0.00,VWS V14.01,2013-05-19 15:04:00,
2013-05-19 11:07:00,76.5,60.6,29.98,SSE,165,2.0,3.0,58,0.00,,---,0.00,VWS V14.01,2013-05-19 15:07:00,
2013-05-19 11:08:00,76.7,60.3,29.98,East,85,2.0,3.0,57,0.00,,---,0.00,VWS V14.01,2013-05-19 15:08:00,
2013-05-19 11:09:00,76.7,60.3,29.98,SE,131,1.0,2.0,57,0.00,,---,0.00,VWS V14.01,2013-05-19 15:09:00,
2013-05-19 11:12:00,77.3,61.4,29.98,ENE,73,0.0,2.0,58,0.00,,---,0.00,VWS V14.01,2013-05-19 15:12:00,
2013-05-19 11:13:00,77.4,61.0,29.98,SSE,149,2.0,3.0,57,0.00,,---,0.00,VWS V14.01,2013-05-19 15:13:00,
2013-05-19 11:14:00,77.4,61.0,29.98,SE,127,2.0,3.0,57,0.00,,---,0.00,VWS V14.01,2013-05-19 15:14:00,
2013-05-19 11:17:00,77.8,60.9,29.98,South,178,1.0,2.0,56,0.00,,---,0.00,VWS V14.01,2013-05-19 15:17:00,
2013-05-19 11:19:00,77.9,60.5,29.98,SE,139,0.0,4.0,55,0.00,,---,0.00,VWS V14.01,2013-05-19 15:19:00,
2013-05-19 11:22:00,77.9,61.5,29.98,West,271,2.0,3.0,57,0.00,,---,0.00,VWS V14.01,2013-05-19 15:22:00,
2013-05-19 11:24:00,77.8,60.4,29.98,West,260,1.0,3.0,55,0.00,,---,0.00,VWS V14.01,2013-05-19 15:24:00,
2013-05-19 11:25:00,77.8,60.9,29.98,WSW,246,1.0,1.0,56,0.00,,---,0.00,VWS V14.01,2013-05-19 15:25:00,
2013-05-19 11:28:00,77.8,60.9,29.98,SE,133,0.0,1.0,56,0.00,,---,0.00,VWS V14.01,2013-05-19 15:28:00,
2013-05-19 11:29:00,77.9,61.5,29.98,SSE,166,2.0,2.0,57,0.00,,---,0.00,VWS V14.01,2013-05-19 15:29:00,
2013-05-19 11:30:00,78.0,62.0,29.98,SE,141,1.0,2.0,58,0.00,,---,0.00,VWS V14.01,2013-05-19 15:30:00,
2013-05-19 11:33:00,78.7,62.2,29.98,SW,233,1.0,2.0,57,0.00,,---,0.00,VWS V14.01,2013-05-19 15:33:00,
2013-05-19 11:34:00,78.9,61.9,29.98,SW,227,1.0,1.0,56,0.00,,---,0.00,VWS V14.01,2013-05-19 15:34:00,
2013-05-19 11:35:00,79.0,62.5,29.98,WSW,253,1.0,1.0,57,0.00,,---,0.00,VWS V14.01,2013-05-19 15:35:00,
2013-05-19 11:38:00,79.0,62.5,29.98,WSW,249,2.0,2.0,57,0.00,,---,0.00,VWS V14.01,2013-05-19 15:38:00,
2013-05-19 11:39:00,79.1,62.6,29.98,SW,229,1.0,2.0,57,0.00,,---,0.00,VWS V14.01,2013-05-19 15:39:00,
2013-05-19 11:40:00,79.2,62.7,29.98,ENE,70,3.0,3.0,57,0.00,,---,0.00,VWS V14.01,2013-05-19 15:40:00,
2013-05-19 11:43:00,78.8,61.8,29.98,East,96,0.0,0.0,56,0.00,,---,0.00,VWS V14.01,2013-05-19 15:43:00,
2013-05-19 11:44:00,78.6,62.1,29.98,ENE,63,3.0,3.0,57,0.00,,---,0.00,VWS V14.01,2013-05-19 15:44:00,
2013-05-19 11:45:00,78.6,63.1,29.98,SSE,158,4.0,5.0,59,0.00,,---,0.00,VWS V14.01,2013-05-19 15:45:00,
2013-05-19 11:48:00,78.4,61.9,29.98,ENE,77,2.0,2.0,57,0.00,,---,0.00,VWS V14.01,2013-05-19 15:48:00,
2013-05-19 11:49:00,78.5,62.5,29.98,SE,129,0.0,2.0,58,0.00,,---,0.00,VWS V14.01,2013-05-19 15:49:00,
2013-05-19 11:50:00,78.5,62.5,29.98,SE,129,0.0,2.0,58,0.00,,---,0.00,VWS V14.01,2013-05-19 15:50:00,
2013-05-19 11:53:00,78.8,62.8,29.98,WSW,247,1.0,2.0,58,0.00,,---,0.00,VWS V14.01,2013-05-19 15:53:00,
2013-05-19 11:55:00,79.0,61.5,29.98,WSW,247,0.0,0.0,55,0.00,,---,0.00,VWS V14.01,2013-05-19 15:55:00,
2013-05-19 11:58:00,79.6,63.0,29.97,SW,218,0.0,0.0,57,0.00,,---,0.00,VWS V14.01,2013-05-19 15:58:00,
2013-05-19 12:00:00,79.8,62.7,29.98,South,173,2.0,3.0,56,0.00,,---,0.00,VWS V14.01,2013-05-19 16:00:00,
2013-05-19 12:03:00,79.8,62.7,29.98,SW,227,2.0,4.0,56,0.00,,---,0.00,VWS V14.01,2013-05-19 16:03:00,
2013-05-19 12:05:00,79.9,63.3,29.98,East,93,2.0,2.0,57,0.00,,---,0.00,VWS V14.01,2013-05-19 16:05:00,
2013-05-19 12:06:00,79.9,62.8,29.98,SE,146,2.0,3.0,56,0.00,,---,0.00,VWS V14.01,2013-05-19 16:06:00,
2013-05-19 12:08:00,79.8,62.2,29.98,WSW,256,2.0,2.0,55,0.00,,---,0.00,VWS V14.01,2013-05-19 16:08:00,
2013-05-19 12:10:00,79.9,63.8,29.98,WNW,291,1.0,2.0,58,0.00,,---,0.00,VWS V14.01,2013-05-19 16:10:00,
2013-05-19 12:11:00,80.1,63.5,29.98,SSE,147,5.0,5.0,57,0.00,,---,0.00,VWS V14.01,2013-05-19 16:11:00,
2013-05-19 12:14:00,80.4,62.8,29.97,WSW,245,2.0,3.0,55,0.00,,---,0.00,VWS V14.01,2013-05-19 16:14:00,
2013-05-19 12:15:00,80.4,62.2,29.97,ESE,118,1.0,3.0,54,0.00,,---,0.00,VWS V14.01,2013-05-19 16:15:00,
2013-05-19 12:16:00,80.4,62.2,29.98,ESE,117,0.0,0.0,54,0.00,,---,0.00,VWS V14.01,2013-05-19 16:16:00,
2013-05-19 12:19:00,80.6,62.4,29.98,ESE,110,1.0,3.0,54,0.00,,---,0.00,VWS V14.01,2013-05-19 16:19:00,
2013-05-19 12:20:00,80.3,62.7,29.98,SSW,198,2.0,2.0,55,0.00,,---,0.00,VWS V14.01,2013-05-19 16:20:00,
2013-05-19 12:21:00,80.3,63.2,29.98,NNW,347,1.0,2.0,56,0.00,,---,0.00,VWS V14.01,2013-05-19 16:21:00,
2013-05-19 12:24:00,80.4,62.8,29.98,West,262,2.0,2.0,55,0.00,,---,0.00,VWS V14.01,2013-05-19 16:24:00,
2013-05-19 12:25:00,80.6,61.9,29.98,SW,220,1.0,3.0,53,0.00,,---,0.00,VWS V14.01,2013-05-19 16:25:00,
2013-05-19 12:26:00,80.6,61.9,29.98,SW,221,0.0,1.0,53,0.00,,---,0.00,VWS V14.01,2013-05-19 16:26:00,
2013-05-19 12:29:00,81.0,62.3,29.98,ENE,59,3.0,3.0,53,0.00,,---,0.00,VWS V14.01,2013-05-19 16:29:00,
2013-05-19 12:30:00,80.9,62.2,29.98,ENE,67,0.0,2.0,53,0.00,,---,0.00,VWS V14.01,2013-05-19 16:30:00,
2013-05-19 12:31:00,80.8,62.1,29.97,ENE,67,1.0,2.0,53,0.00,,---,0.00,VWS V14.01,2013-05-19 16:31:00,
2013-05-19 12:34:00,81.0,61.7,29.97,WNW,302,3.0,3.0,52,0.00,,---,0.00,VWS V14.01,2013-05-19 16:34:00,
2013-05-19 12:35:00,81.0,62.3,29.97,WNW,303,0.0,0.0,53,0.00,,---,0.00,VWS V14.01,2013-05-19 16:35:00,
2013-05-19 12:36:00,81.0,62.3,29.97,NW,319,0.0,0.0,53,0.00,,---,0.00,VWS V14.01,2013-05-19 16:36:00,
2013-05-19 12:37:00,81.0,61.7,29.97,South,187,2.0,2.0,52,0.00,,---,0.00,VWS V14.01,2013-05-19 16:37:00,
2013-05-19 12:39:00,81.1,62.4,29.97,ESE,107,2.0,2.0,53,0.00,,---,0.00,VWS V14.01,2013-05-19 16:39:00,
2013-05-19 12:41:00,81.3,62.0,29.97,SSE,150,1.0,4.0,52,0.00,,---,0.00,VWS V14.01,2013-05-19 16:41:00,
2013-05-19 12:42:00,81.3,62.5,29.97,ENE,70,4.0,5.0,53,0.00,,---,0.00,VWS V14.01,2013-05-19 16:42:00,
2013-05-19 12:44:00,81.3,62.0,29.97,SSE,151,2.0,2.0,52,0.00,,---,0.00,VWS V14.01,2013-05-19 16:44:00,
2013-05-19 12:46:00,81.4,63.7,29.97,NW,324,1.0,4.0,55,0.00,,---,0.00,VWS V14.01,2013-05-19 16:46:00,
2013-05-19 12:47:00,81.6,63.4,29.97,ENE,68,2.0,2.0,54,0.00,,---,0.00,VWS V14.01,2013-05-19 16:47:00,
2013-05-19 12:49:00,81.9,63.1,29.97,ESE,106,2.0,2.0,53,0.00,,---,0.00,VWS V14.01,2013-05-19 16:49:00,
2013-05-19 12:51:00,82.0,63.2,29.97,ENE,75,2.0,6.0,53,0.00,,---,0.00,VWS V14.01,2013-05-19 16:51:00,
2013-05-19 12:52:00,82.1,63.8,29.97,East,80,2.0,2.0,54,0.00,,---,0.00,VWS V14.01,2013-05-19 16:52:00,
2013-05-19 12:54:00,82.0,62.7,29.97,East,98,0.0,1.0,52,0.00,,---,0.00,VWS V14.01,2013-05-19 16:54:00,
2013-05-19 12:56:00,82.1,62.2,29.97,ESE,122,1.0,1.0,51,0.00,,---,0.00,VWS V14.01,2013-05-19 16:56:00,
2013-05-19 12:57:00,82.1,62.2,29.97,SSE,152,2.0,3.0,51,0.00,,---,0.00,VWS V14.01,2013-05-19 16:57:00,
2013-05-19 13:00:00,82.2,62.8,29.97,WNW,303,1.0,2.0,52,0.00,,---,0.00,VWS V14.01,2013-05-19 17:00:00,
2013-05-19 13:01:00,82.4,62.5,29.96,SW,218,2.0,2.0,51,0.00,,---,0.00,VWS V14.01,2013-05-19 17:01:00,
2013-05-19 13:02:00,82.6,62.7,29.96,West,274,2.0,2.0,51,0.00,,---,0.00,VWS V14.01,2013-05-19 17:02:00,
2013-05-19 13:05:00,82.7,62.8,29.96,North,350,2.0,8.0,51,0.00,,---,0.00,VWS V14.01,2013-05-19 17:05:00,
2013-05-19 13:06:00,82.8,62.8,29.96,SE,146,1.0,5.0,51,0.00,,---,0.00,VWS V14.01,2013-05-19 17:06:00,
2013-05-19 13:07:00,82.8,62.8,29.96,SSE,154,2.0,3.0,51,0.00,,---,0.00,VWS V14.01,2013-05-19 17:07:00,
2013-05-19 13:08:00,82.8,62.8,29.96,South,182,0.0,4.0,51,0.00,,---,0.00,VWS V14.01,2013-05-19 17:08:00,
2013-05-19 13:10:00,83.1,62.5,29.96,WNW,295,2.0,3.0,50,0.00,,---,0.00,VWS V14.01,2013-05-19 17:10:00,
2013-05-19 13:11:00,83.1,62.5,29.96,SSW,208,1.0,3.0,50,0.00,,---,0.00,VWS V14.01,2013-05-19 17:11:00,
2013-05-19 13:12:00,83.2,62.7,29.96,SSW,192,1.0,2.0,50,0.00,,---,0.00,VWS V14.01,2013-05-19 17:12:00,
2013-05-19 13:13:00,83.3,63.3,29.96,SSE,165,0.0,0.0,51,0.00,,---,0.00,VWS V14.01,2013-05-19 17:13:00,
2013-05-19 13:15:00,83.6,62.4,29.96,SSW,197,2.0,3.0,49,0.00,,---,0.00,VWS V14.01,2013-05-19 17:15:00,
2013-05-19 13:16:00,83.6,63.0,29.96,SW,235,2.0,6.0,50,0.00,,---,0.00,VWS V14.01,2013-05-19 17:16:00,
2013-05-19 13:17:00,83.5,62.3,29.96,SW,215,3.0,6.0,49,0.00,,---,0.00,VWS V14.01,2013-05-19 17:17:00,
2013-05-19 13:18:00,83.4,61.7,29.96,NW,323,1.0,1.0,48,0.00,,---,0.00,VWS V14.01,2013-05-19 17:18:00,
2013-05-19 13:20:00,83.2,61.5,29.95,ENE,78,0.0,1.0,48,0.00,,---,0.00,VWS V14.01,2013-05-19 17:20:00,
2013-05-19 13:21:00,83.0,61.9,29.95,SE,146,1.0,3.0,49,0.00,,---,0.00,VWS V14.01,2013-05-19 17:21:00,
2013-05-19 13:22:00,83.0,62.5,29.95,SSE,152,2.0,2.0,50,0.00,,---,0.00,VWS V14.01,2013-05-19 17:22:00,
2013-05-19 13:23:00,83.1,62.5,29.95,SW,226,4.0,4.0,50,0.00,,---,0.00,VWS V14.01,2013-05-19 17:23:00,
2013-05-19 13:25:00,83.1,62.5,29.95,SE,126,2.0,5.0,50,0.00,,---,0.00,VWS V14.01,2013-05-19 17:25:00,
2013-05-19 13:26:00,83.0,61.9,29.95,NW,308,0.0,1.0,49,0.00,,---,0.00,VWS V14.01,2013-05-19 17:26:00,
2013-05-19 13:27:00,83.0,61.9,29.95,WSW,243,3.0,3.0,49,0.00,,---,0.00,VWS V14.01,2013-05-19 17:27:00,
2013-05-19 13:28:00,82.8,61.7,29.95,NW,317,0.0,2.0,49,0.00,,---,0.00,VWS V14.01,2013-05-19 17:28:00,
2013-05-19 13:30:00,82.6,62.1,29.95,East,92,1.0,7.0,50,0.00,,---,0.00,VWS V14.01,2013-05-19 17:30:00,
2013-05-19 13:31:00,82.5,62.6,29.95,West,272,1.0,5.0,51,0.00,,---,0.00,VWS V14.01,2013-05-19 17:31:00,
2013-05-19 13:32:00,82.5,62.6,29.95,West,272,0.0,0.0,51,0.00,,---,0.00,VWS V14.01,2013-05-19 17:32:00,
2013-05-19 13:33:00,82.5,61.4,29.95,East,92,2.0,2.0,49,0.00,,---,0.00,VWS V14.01,2013-05-19 17:33:00,
2013-05-19 13:35:00,82.5,62.0,29.95,SSW,205,1.0,3.0,50,0.00,,---,0.00,VWS V14.01,2013-05-19 17:35:00,
2013-05-19 13:36:00,82.5,62.0,29.95,SW,220,3.0,3.0,50,0.00,,---,0.00,VWS V14.01,2013-05-19 17:36:00,
2013-05-19 13:37:00,82.5,62.0,29.95,WSW,250,1.0,1.0,50,0.00,,---,0.00,VWS V14.01,2013-05-19 17:37:00,
2013-05-19 13:38:00,82.6,62.7,29.95,WSW,247,2.0,2.0,51,0.00,,---,0.00,VWS V14.01,2013-05-19 17:38:00,
2013-05-19 13:40:00,83.3,62.2,29.94,SE,146,2.0,4.0,49,0.00,,---,0.00,VWS V14.01,2013-05-19 17:40:00,
2013-05-19 13:41:00,83.5,62.3,29.94,SSW,210,2.0,3.0,49,0.00,,---,0.00,VWS V14.01,2013-05-19 17:41:00,
2013-05-19 13:42:00,83.5,62.3,29.94,South,186,2.0,2.0,49,0.00,,---,0.00,VWS V14.01,2013-05-19 17:42:00,
2013-05-19 13:43:00,83.6,62.4,29.94,SE,146,1.0,1.0,49,0.00,,---,0.00,VWS V14.01,2013-05-19 17:43:00,
2013-05-19 13:44:00,83.7,63.1,29.94,WNW,296,2.0,3.0,50,0.00,,---,0.00,VWS V14.01,2013-05-19 17:44:00,
2013-05-19 13:45:00,84.1,64.0,29.94,WNW,283,2.0,3.0,51,0.00,,---,0.00,VWS V14.01,2013-05-19 17:45:00,
2013-05-19 13:47:00,84.3,63.1,29.94,SW,236,3.0,3.0,49,0.00,,---,0.00,VWS V14.01,2013-05-19 17:47:00,
2013-05-19 13:48:00,84.3,62.5,29.94,West,262,2.0,3.0,48,0.00,,---,0.00,VWS V14.01,2013-05-19 17:48:00,
2013-05-19 13:49:00,84.3,61.9,29.94,West,267,3.0,4.0,47,0.00,,---,0.00,VWS V14.01,2013-05-19 17:49:00,
2013-05-19 13:50:00,83.9,61.5,29.94,West,281,3.0,8.0,47,0.00,,---,0.00,VWS V14.01,2013-05-19 17:50:00,
2013-05-19 13:52:00,83.5,61.8,29.94,West,277,0.0,2.0,48,0.00,,---,0.00,VWS V14.01,2013-05-19 17:52:00,
2013-05-19 13:53:00,83.2,62.1,29.94,ENE,68,2.0,5.0,49,0.00,,---,0.00,VWS V14.01,2013-05-19 17:53:00,
2013-05-19 13:54:00,82.9,61.2,29.94,West,280,1.0,1.0,48,0.00,,---,0.00,VWS V14.01,2013-05-19 17:54:00,
2013-05-19 13:55:00,82.6,62.1,29.94,NE,35,1.0,4.0,50,0.00,,---,0.00,VWS V14.01,2013-05-19 17:55:00,
2013-05-19 13:57:00,82.3,61.8,29.94,SSW,213,1.0,2.0,50,0.00,,---,0.00,VWS V14.01,2013-05-19 17:57:00,
2013-05-19 13:58:00,82.2,61.7,29.94,West,267,1.0,3.0,50,0.00,,---,0.00,VWS V14.01,2013-05-19 17:58:00,
2013-05-19 13:59:00,82.2,61.7,29.94,SSW,206,0.0,2.0,50,0.00,,---,0.00,VWS V14.01,2013-05-19 17:59:00,
2013-05-19 14:00:00,82.4,62.5,29.94,WNW,301,1.0,3.0,51,0.00,,---,0.00,VWS V14.01,2013-05-19 18:00:00,
2013-05-19 14:02:00,82.7,62.8,29.94,SW,218,2.0,3.0,51,0.00,,---,0.00,VWS V14.01,2013-05-19 18:02:00,
2013-05-19 14:04:00,83.1,63.1,29.93,WNW,298,1.0,1.0,51,0.00,,---,0.00,VWS V14.01,2013-05-19 18:04:00,
2013-05-19 14:06:00,83.3,63.3,29.93,SSE,151,1.0,1.0,51,0.00,,---,0.00,VWS V14.01,2013-05-19 18:06:00,
2013-05-19 14:07:00,83.3,62.2,29.93,NNW,329,2.0,3.0,49,0.00,,---,0.00,VWS V14.01,2013-05-19 18:07:00,
2013-05-19 14:09:00,83.4,63.4,29.93,SSE,152,1.0,1.0,51,0.00,,---,0.00,VWS V14.01,2013-05-19 18:09:00,
2013-05-19 14:10:00,83.5,62.9,29.93,WSW,256,2.0,2.0,50,0.00,,---,0.00,VWS V14.01,2013-05-19 18:10:00,
2013-05-19 14:11:00,83.5,62.9,29.93,WSW,241,3.0,3.0,50,0.00,,---,0.00,VWS V14.01,2013-05-19 18:11:00,
2013-05-19 14:12:00,83.8,63.8,29.93,SW,228,0.0,2.0,51,0.00,,---,0.00,VWS V14.01,2013-05-19 18:12:00,
2013-05-19 14:13:00,83.8,63.8,29.93,SW,228,0.0,2.0,51,0.00,,---,0.00,VWS V14.01,2013-05-19 18:13:00,
2013-05-19 14:14:00,84.1,63.5,29.93,SW,227,5.0,5.0,50,0.00,,---,0.00,VWS V14.01,2013-05-19 18:14:00,
2013-05-19 14:15:00,84.3,62.5,29.93,NW,310,2.0,6.0,48,0.00,,---,0.00,VWS V14.01,2013-05-19 18:15:00,
2013-05-19 14:16:00,84.3,62.5,29.93,West,272,2.0,2.0,48,0.00,,---,0.00,VWS V14.01,2013-05-19 18:16:00,
2013-05-19 14:18:00,84.5,62.1,29.93,South,172,1.0,4.0,47,0.00,,---,0.00,VWS V14.01,2013-05-19 18:18:00,
2013-05-19 14:19:00,84.6,62.2,29.93,SW,227,3.0,3.0,47,0.00,,---,0.00,VWS V14.01,2013-05-19 18:19:00,
2013-05-19 14:21:00,84.6,63.3,29.93,WSW,243,3.0,3.0,49,0.00,,---,0.00,VWS V14.01,2013-05-19 18:21:00,
2013-05-19 14:23:00,84.3,61.9,29.93,SE,141,0.0,2.0,47,0.00,,---,0.00,VWS V14.01,2013-05-19 18:23:00,
2013-05-19 14:24:00,84.2,62.4,29.92,ESE,123,0.0,0.0,48,0.00,,---,0.00,VWS V14.01,2013-05-19 18:24:00,
2013-05-19 14:26:00,84.1,61.7,29.92,SSW,192,0.0,1.0,47,0.00,,---,0.00,VWS V14.01,2013-05-19 18:26:00,
2013-05-19 14:27:00,84.2,63.0,29.92,South,176,0.0,0.0,49,0.00,,---,0.00,VWS V14.01,2013-05-19 18:27:00,
2013-05-19 14:28:00,84.3,63.7,29.92,East,99,2.0,2.0,50,0.00,,---,0.00,VWS V14.01,2013-05-19 18:28:00,
2013-05-19 14:29:00,84.4,63.2,29.92,ENE,75,2.0,5.0,49,0.00,,---,0.00,VWS V14.01,2013-05-19 18:29:00,
2013-05-19 14:31:00,84.5,62.7,29.92,West,281,2.0,4.0,48,0.00,,---,0.00,VWS V14.01,2013-05-19 18:31:00,
2013-05-19 14:32:00,84.5,62.7,29.92,West,262,3.0,4.0,48,0.00,,---,0.00,VWS V14.01,2013-05-19 18:32:00,
2013-05-19 14:33:00,84.6,62.2,29.92,WNW,284,5.0,5.0,47,0.00,,---,0.00,VWS V14.01,2013-05-19 18:33:00,
2013-05-19 14:34:00,84.5,62.1,29.92,ESE,120,3.0,5.0,47,0.00,,---,0.00,VWS V14.01,2013-05-19 18:34:00,
2013-05-19 14:36:00,84.1,62.3,29.92,WNW,289,4.0,7.0,48,0.00,,---,0.00,VWS V14.01,2013-05-19 18:36:00,
2013-05-19 14:37:00,84.0,62.2,29.92,West,266,7.0,7.0,48,0.00,,---,0.00,VWS V14.01,2013-05-19 18:37:00,
2013-05-19 14:38:00,83.7,62.0,29.92,SW,229,3.0,3.0,48,0.00,,---,0.00,VWS V14.01,2013-05-19 18:38:00,
2013-05-19 14:39:00,83.5,61.8,29.92,WNW,286,0.0,1.0,48,0.00,,---,0.00,VWS V14.01,2013-05-19 18:39:00,
2013-05-19 14:42:00,83.5,61.8,29.92,South,176,0.0,0.0,48,0.00,,---,0.00,VWS V14.01,2013-05-19 18:42:00,
2013-05-19 14:43:00,83.7,62.0,29.92,West,270,3.0,3.0,48,0.00,,---,0.00,VWS V14.01,2013-05-19 18:43:00,
2013-05-19 14:44:00,83.9,62.1,29.92,South,186,0.0,0.0,48,0.00,,---,0.00,VWS V14.01,2013-05-19 18:44:00,
2013-05-19 14:47:00,84.3,61.9,29.92,SW,231,2.0,3.0,47,0.00,,---,0.00,VWS V14.01,2013-05-19 18:47:00,
2013-05-19 14:48:00,84.2,62.4,29.92,WSW,254,3.0,5.0,48,0.00,,---,0.00,VWS V14.01,2013-05-19 18:48:00,
2013-05-19 14:49:00,84.3,62.5,29.92,SE,138,2.0,6.0,48,0.00,,---,0.00,VWS V14.01,2013-05-19 18:49:00,
2013-05-19 14:52:00,84.6,62.2,29.92,ENE,60,2.0,2.0,47,0.00,,---,0.00,VWS V14.01,2013-05-19 18:52:00,
2013-05-19 14:53:00,84.8,62.3,29.92,SW,231,1.0,3.0,47,0.00,,---,0.00,VWS V14.01,2013-05-19 18:53:00,
2013-05-19 14:54:00,84.8,61.7,29.92,SSW,207,0.0,0.0,46,0.00,,---,0.00,VWS V14.01,2013-05-19 18:54:00,
2013-05-19 14:57:00,84.9,61.8,29.91,SW,234,0.0,0.0,46,0.00,,---,0.00,VWS V14.01,2013-05-19 18:57:00,
2013-05-19 14:58:00,84.9,61.8,29.92,SSE,165,1.0,2.0,46,0.00,,---,0.00,VWS V14.01,2013-05-19 18:58:00,
2013-05-19 14:59:00,84.9,61.8,29.92,SSE,165,0.0,1.0,46,0.00,,---,0.00,VWS V14.01,2013-05-19 18:59:00,
2013-05-19 15:02:00,84.8,62.3,29.92,SE,135,0.0,1.0,47,0.00,,---,0.00,VWS V14.01,2013-05-19 19:02:00,
2013-05-19 15:04:00,84.9,61.8,29.92,WSW,243,4.0,4.0,46,0.00,,---,0.00,VWS V14.01,2013-05-19 19:04:00,
2013-05-19 15:05:00,84.8,61.7,29.92,SW,230,1.0,6.0,46,0.00,,---,0.00,VWS V14.01,2013-05-19 19:05:00,
2013-05-19 15:07:00,84.7,61.0,29.92,SE,146,3.0,4.0,45,0.00,,---,0.00,VWS V14.01,2013-05-19 19:07:00,
2013-05-19 15:09:00,84.6,60.9,29.92,West,271,1.0,3.0,45,0.00,,---,0.00,VWS V14.01,2013-05-19 19:09:00,
2013-05-19 15:10:00,84.6,60.9,29.92,SSE,153,1.0,3.0,45,0.00,,---,0.00,VWS V14.01,2013-05-19 19:10:00,
2013-05-19 15:12:00,84.5,61.5,29.92,ESE,120,3.0,6.0,46,0.00,,---,0.00,VWS V14.01,2013-05-19 19:12:00,
2013-05-19 15:13:00,84.5,61.5,29.92,South,170,4.0,5.0,46,0.00,,---,0.00,VWS V14.01,2013-05-19 19:13:00,
2013-05-19 15:14:00,84.1,61.1,29.92,SE,132,3.0,4.0,46,0.00,,---,0.00,VWS V14.01,2013-05-19 19:14:00,
2013-05-19 15:15:00,83.9,60.9,29.92,WSW,250,1.0,4.0,46,0.00,,---,0.00,VWS V14.01,2013-05-19 19:15:00,
2013-05-19 15:18:00,83.4,62.8,29.92,WSW,243,0.0,1.0,50,0.00,,---,0.00,VWS V14.01,2013-05-19 19:18:00,
2013-05-19 15:19:00,83.2,60.9,29.92,NW,305,1.0,1.0,47,0.00,,---,0.00,VWS V14.01,2013-05-19 19:19:00,
2013-05-19 15:20:00,83.2,60.9,29.92,West,264,0.0,0.0,47,0.00,,---,0.00,VWS V14.01,2013-05-19 19:20:00,
2013-05-19 15:23:00,83.1,60.8,29.92,West,276,2.0,2.0,47,0.00,,---,0.00,VWS V14.01,2013-05-19 19:23:00,
2013-05-19 15:24:00,83.2,60.9,29.92,WSW,245,0.0,1.0,47,0.00,,---,0.00,VWS V14.01,2013-05-19 19:24:00,
2013-05-19 15:25:00,83.3,62.2,29.92,WSW,246,0.0,1.0,49,0.00,,---,0.00,VWS V14.01,2013-05-19 19:25:00,
2013-05-19 15:28:00,83.8,62.6,29.92,SW,234,2.0,3.0,49,0.00,,---,0.00,VWS V14.01,2013-05-19 19:28:00,
2013-05-19 15:29:00,83.8,62.0,29.92,South,182,2.0,3.0,48,0.00,,---,0.00,VWS V14.01,2013-05-19 19:29:00,
2013-05-19 15:30:00,83.8,62.0,29.92,WSW,238,2.0,3.0,48,0.00,,---,0.00,VWS V14.01,2013-05-19 19:30:00,
2013-05-19 15:33:00,83.6,61.3,29.92,WNW,298,0.0,1.0,47,0.00,,---,0.00,VWS V14.01,2013-05-19 19:33:00,
2013-05-19 15:34:00,83.6,62.4,29.92,East,97,0.0,1.0,49,0.00,,---,0.00,VWS V14.01,2013-05-19 19:34:00,
2013-05-19 15:35:00,83.6,62.4,29.92,East,99,0.0,0.0,49,0.00,,---,0.00,VWS V14.01,2013-05-19 19:35:00,
2013-05-19 15:38:00,83.7,61.3,29.91,WNW,300,0.0,0.0,47,0.00,,---,0.00,VWS V14.01,2013-05-19 19:38:00,
2013-05-19 15:40:00,83.8,61.4,29.91,West,274,1.0,1.0,47,0.00,,---,0.00,VWS V14.01,2013-05-19 19:40:00,
2013-05-19 15:43:00,83.8,62.0,29.92,West,265,0.0,0.0,48,0.00,,---,0.00,VWS V14.01,2013-05-19 19:43:00,
2013-05-19 15:45:00,83.8,62.0,29.91,SW,221,0.0,1.0,48,0.00,,---,0.00,VWS V14.01,2013-05-19 19:45:00,
2013-05-19 15:46:00,83.9,62.1,29.91,WNW,290,0.0,1.0,48,0.00,,---,0.00,VWS V14.01,2013-05-19 19:46:00,
2013-05-19 15:48:00,84.0,61.6,29.92,ESE,123,2.0,2.0,47,0.00,,---,0.00,VWS V14.01,2013-05-19 19:48:00,
2013-05-19 15:50:00,84.2,63.6,29.91,WSW,246,0.0,0.0,50,0.00,,---,0.00,VWS V14.01,2013-05-19 19:50:00,
2013-05-19 15:51:00,84.3,63.7,29.92,SSW,213,0.0,0.0,50,0.00,,---,0.00,VWS V14.01,2013-05-19 19:51:00,
2013-05-19 15:53:00,84.5,62.7,29.92,West,272,1.0,2.0,48,0.00,,---,0.00,VWS V14.01,2013-05-19 19:53:00,
2013-05-19 15:55:00,84.6,61.6,29.91,WSW,255,2.0,2.0,46,0.00,,---,0.00,VWS V14.01,2013-05-19 19:55:00,
2013-05-19 15:56:00,84.6,61.6,29.91,WSW,245,0.0,1.0,46,0.00,,---,0.00,VWS V14.01,2013-05-19 19:56:00,
2013-05-19 15:58:00,84.8,61.1,29.91,NE,38,1.0,1.0,45,0.00,,---,0.00,VWS V14.01,2013-05-19 19:58:00,
2013-05-19 16:00:00,85.0,61.3,29.91,NE,50,0.0,0.0,45,0.00,,---,0.00,VWS V14.01,2013-05-19 20:00:00,
2013-05-19 16:01:00,85.1,62.0,29.91,NE,50,0.0,0.0,46,0.00,,---,0.00,VWS V14.01,2013-05-19 20:01:00,
2013-05-19 16:03:00,85.4,61.7,29.91,East,89,1.0,2.0,45,0.00,,---,0.00,VWS V14.01,2013-05-19 20:03:00,
2013-05-19 16:05:00,85.6,61.2,29.91,SSW,198,0.0,1.0,44,0.00,,---,0.00,VWS V14.01,2013-05-19 20:05:00,
2013-05-19 16:06:00,85.7,61.9,29.91,ESE,120,1.0,2.0,45,0.00,,---,0.00,VWS V14.01,2013-05-19 20:06:00,
2013-05-19 16:08:00,85.7,63.2,29.91,SE,146,0.0,0.0,47,0.00,,---,0.00,VWS V14.01,2013-05-19 20:08:00,
2013-05-19 16:09:00,85.8,62.0,29.91,SE,126,1.0,1.0,45,0.00,,---,0.00,VWS V14.01,2013-05-19 20:09:00,
2013-05-19 16:11:00,85.9,62.7,29.91,WSW,251,1.0,2.0,46,0.00,,---,0.00,VWS V14.01,2013-05-19 20:11:00,
2013-05-19 16:13:00,86.2,64.2,29.91,WNW,301,1.0,1.0,48,0.00,,---,0.00,VWS V14.01,2013-05-19 20:13:00,
2013-05-19 16:14:00,86.2,64.2,29.91,WNW,302,1.0,1.0,48,0.00,,---,0.00,VWS V14.01,2013-05-19 20:14:00,
2013-05-19 16:16:00,86.3,61.2,29.91,NW,305,1.0,1.0,43,0.00,,---,0.00,VWS V14.01,2013-05-19 20:16:00,
2013-05-19 16:18:00,86.3,61.2,29.91,ESE,103,1.0,1.0,43,0.00,,---,0.00,VWS V14.01,2013-05-19 20:18:00,
2013-05-19 16:19:00,86.3,61.2,29.90,East,92,2.0,2.0,43,0.00,,---,0.00,VWS V14.01,2013-05-19 20:19:00,
2013-05-19 16:21:00,86.2,60.4,29.90,NNW,336,1.0,1.0,42,0.00,,---,0.00,VWS V14.01,2013-05-19 20:21:00,
2013-05-19 16:24:00,86.0,61.6,29.90,WSW,246,0.0,0.0,44,0.00,,---,0.00,VWS V14.01,2013-05-19 20:24:00,
2013-05-19 16:26:00,86.1,61.7,29.89,SW,220,1.0,1.0,44,0.00,,---,0.00,VWS V14.01,2013-05-19 20:26:00,
2013-05-19 16:27:00,86.3,61.2,29.90,ENE,64,3.0,4.0,43,0.00,,---,0.00,VWS V14.01,2013-05-19 20:27:00,
2013-05-19 16:29:00,86.1,61.0,29.89,ESE,120,5.0,6.0,43,0.00,,---,0.00,VWS V14.01,2013-05-19 20:29:00,
2013-05-19 16:31:00,85.7,60.7,29.89,SSE,150,0.0,0.0,43,0.00,,---,0.00,VWS V14.01,2013-05-19 20:31:00,
2013-05-19 16:32:00,85.6,61.2,29.89,SW,220,1.0,2.0,44,0.00,,---,0.00,VWS V14.01,2013-05-19 20:32:00,
2013-05-19 16:34:00,85.6,61.8,29.89,ENE,78,1.0,1.0,45,0.00,,---,0.00,VWS V14.01,2013-05-19 20:34:00,
2013-05-19 16:36:00,85.7,61.9,29.89,East,101,2.0,3.0,45,0.00,,---,0.00,VWS V14.01,2013-05-19 20:36:00,
2013-05-19 16:37:00,85.8,62.0,29.89,ESE,118,1.0,2.0,45,0.00,,---,0.00,VWS V14.01,2013-05-19 20:37:00,
2013-05-19 16:39:00,85.7,61.3,29.89,ENE,70,3.0,4.0,44,0.00,,---,0.00,VWS V14.01,2013-05-19 20:39:00,
2013-05-19 16:41:00,85.4,61.0,29.88,East,79,4.0,4.0,44,0.00,,---,0.00,VWS V14.01,2013-05-19 20:41:00,
2013-05-19 16:42:00,85.3,61.6,29.88,NNE,29,2.0,4.0,45,0.00,,---,0.00,VWS V14.01,2013-05-19 20:42:00,
2013-05-19 16:44:00,85.3,61.6,29.88,SSW,196,1.0,3.0,45,0.00,,---,0.00,VWS V14.01,2013-05-19 20:44:00,
2013-05-19 16:45:00,85.4,61.0,29.88,SW,231,7.0,7.0,44,0.00,,---,0.00,VWS V14.01,2013-05-19 20:45:00,
2013-05-19 16:46:00,85.5,61.8,29.88,East,80,5.0,5.0,45,0.00,,---,0.00,VWS V14.01,2013-05-19 20:46:00,
2013-05-19 16:47:00,85.5,61.8,29.88,East,89,1.0,2.0,45,0.00,,---,0.00,VWS V14.01,2013-05-19 20:47:00,
2013-05-19 16:49:00,85.4,61.0,29.88,ENE,59,3.0,4.0,44,0.00,,---,0.00,VWS V14.01,2013-05-19 20:49:00,
2013-05-19 16:50:00,85.4,61.0,29.88,East,83,0.0,4.0,44,0.00,,---,0.00,VWS V14.01,2013-05-19 20:50:00,
2013-05-19 16:52:00,85.2,60.8,29.88,NNE,33,2.0,3.0,44,0.00,,---,0.00,VWS V14.01,2013-05-19 20:52:00,
2013-05-19 16:54:00,84.9,61.8,29.87,NNE,32,0.0,0.0,46,0.00,,---,0.00,VWS V14.01,2013-05-19 20:54:00,
2013-05-19 16:55:00,84.9,61.8,29.87,NE,56,0.0,0.0,46,0.00,,---,0.00,VWS V14.01,2013-05-19 20:55:00,
2013-05-19 16:57:00,84.9,61.2,29.87,NNE,33,0.0,1.0,45,0.00,,---,0.00,VWS V14.01,2013-05-19 20:57:00,
2013-05-19 16:59:00,85.1,60.8,29.87,ENE,78,2.0,3.0,44,0.00,,---,0.00,VWS V14.01,2013-05-19 20:59:00,
2013-05-19 17:00:00,85.1,60.8,29.87,SE,141,0.0,0.0,44,0.00,,---,0.00,VWS V14.01,2013-05-19 21:00:00,
2013-05-19 17:02:00,85.4,61.7,29.87,South,170,1.0,1.0,45,0.00,,---,0.00,VWS V14.01,2013-05-19 21:02:00,
2013-05-19 17:05:00,86.1,61.0,29.87,West,270,0.0,2.0,43,0.00,,---,0.00,VWS V14.01,2013-05-19 21:05:00,
2013-05-19 17:07:00,86.6,60.8,29.87,WSW,243,0.0,0.0,42,0.00,,---,0.00,VWS V14.01,2013-05-19 21:07:00,
2013-05-19 17:10:00,87.0,61.8,29.87,SE,139,3.0,3.0,43,0.00,,---,0.00,VWS V14.01,2013-05-19 21:10:00,
2013-05-19 17:12:00,86.8,60.3,29.87,SSE,158,1.0,3.0,41,0.00,,---,0.00,VWS V14.01,2013-05-19 21:12:00,
2013-05-19 17:15:00,86.9,61.1,29.87,WSW,241,1.0,1.0,42,0.00,,---,0.00,VWS V14.01,2013-05-19 21:15:00,
2013-05-19 17:17:00,87.0,60.5,29.87,WSW,255,1.0,1.0,41,0.00,,---,0.00,VWS V14.01,2013-05-19 21:17:00,
2013-05-19 17:18:00,87.0,60.5,29.87,West,276,0.0,1.0,41,0.00,,---,0.00,VWS V14.01,2013-05-19 21:18:00,
2013-05-19 17:20:00,86.7,60.2,29.87,SE,135,2.0,3.0,41,0.00,,---,0.00,VWS V14.01,2013-05-19 21:20:00,
2013-05-19 17:22:00,86.2,60.4,29.87,NW,324,1.0,6.0,42,0.00,,---,0.00,VWS V14.01,2013-05-19 21:22:00,
2013-05-19 17:23:00,86.1,60.3,29.87,ENE,75,2.0,6.0,42,0.00,,---,0.00,VWS V14.01,2013-05-19 21:23:00,
2013-05-19 17:25:00,85.6,59.9,29.87,SE,126,1.0,5.0,42,0.00,,---,0.00,VWS V14.01,2013-05-19 21:25:00,
2013-05-19 17:27:00,85.1,60.1,29.87,ESE,111,3.0,4.0,43,0.00,,---,0.00,VWS V14.01,2013-05-19 21:27:00,
2013-05-19 17:28:00,85.0,60.0,29.87,East,93,1.0,2.0,43,0.00,,---,0.00,VWS V14.01,2013-05-19 21:28:00,
2013-05-19 17:30:00,84.7,60.4,29.88,SSE,159,1.0,2.0,44,0.00,,---,0.00,VWS V14.01,2013-05-19 21:30:00,
2013-05-19 17:32:00,84.5,60.8,29.88,South,170,3.0,6.0,45,0.00,,---,0.00,VWS V14.01,2013-05-19 21:32:00,
2013-05-19 17:33:00,84.5,60.8,29.88,SE,141,3.0,6.0,45,0.00,,---,0.00,VWS V14.01,2013-05-19 21:33:00,
2013-05-19 17:35:00,84.7,61.7,29.88,East,86,3.0,6.0,46,0.00,,---,0.00,VWS V14.01,2013-05-19 21:35:00,
2013-05-19 17:36:00,84.7,61.7,29.88,NE,47,2.0,6.0,46,0.00,,---,0.00,VWS V14.01,2013-05-19 21:36:00,
2013-05-19 17:37:00,84.5,62.1,29.88,SSE,165,4.0,6.0,47,0.00,,---,0.00,VWS V14.01,2013-05-19 21:37:00,
2013-05-19 17:38:00,84.5,62.1,29.88,SSE,149,2.0,6.0,47,0.00,,---,0.00,VWS V14.01,2013-05-19 21:38:00,
2013-05-19 17:40:00,84.2,61.8,29.88,ENE,78,1.0,2.0,47,0.00,,---,0.00,VWS V14.01,2013-05-19 21:40:00,
2013-05-19 17:41:00,84.2,61.8,29.88,SSE,162,3.0,4.0,47,0.00,,---,0.00,VWS V14.01,2013-05-19 21:41:00,
2013-05-19 17:43:00,84.1,62.9,29.88,ESE,123,1.0,2.0,49,0.00,,---,0.00,VWS V14.01,2013-05-19 21:43:00,
2013-05-19 17:45:00,84.2,62.4,29.88,South,171,3.0,5.0,48,0.00,,---,0.00,VWS V14.01,2013-05-19 21:45:00,
2013-05-19 17:46:00,84.2,62.4,29.88,SE,125,2.0,5.0,48,0.00,,---,0.00,VWS V14.01,2013-05-19 21:46:00,
2013-05-19 17:48:00,84.4,62.6,29.88,ENE,70,2.0,3.0,48,0.00,,---,0.00,VWS V14.01,2013-05-19 21:48:00,
2013-05-19 17:50:00,84.4,62.6,29.88,East,94,3.0,8.0,48,0.00,,---,0.00,VWS V14.01,2013-05-19 21:50:00,
2013-05-19 17:51:00,84.3,62.5,29.88,East,87,5.0,7.0,48,0.00,,---,0.00,VWS V14.01,2013-05-19 21:51:00,
2013-05-19 17:53:00,84.3,63.1,29.88,SSE,168,1.0,3.0,49,0.00,,---,0.00,VWS V14.01,2013-05-19 21:53:00,
2013-05-19 17:55:00,84.2,62.4,29.88,SSW,197,2.0,4.0,48,0.00,,---,0.00,VWS V14.01,2013-05-19 21:55:00,
2013-05-19 17:56:00,84.2,62.4,29.88,NE,42,2.0,2.0,48,0.00,,---,0.00,VWS V14.01,2013-05-19 21:56:00,
2013-05-19 17:58:00,84.3,63.7,29.88,SW,216,2.0,2.0,50,0.00,,---,0.00,VWS V14.01,2013-05-19 21:58:00,
2013-05-19 18:00:00,84.2,63.0,29.88,SSE,158,2.0,6.0,49,0.00,,---,0.00,VWS V14.01,2013-05-19 22:00:00,
2013-05-19 18:01:00,84.1,62.3,29.88,SSE,151,0.0,1.0,48,0.00,,---,0.00,VWS V14.01,2013-05-19 22:01:00,
2013-05-19 18:03:00,84.0,62.2,29.88,ENE,78,1.0,3.0,48,0.00,,---,0.00,VWS V14.01,2013-05-19 22:03:00,
2013-05-19 18:06:00,83.8,62.6,29.88,East,80,2.0,4.0,49,0.00,,---,0.00,VWS V14.01,2013-05-19 22:06:00,
2013-05-19 18:08:00,83.7,62.5,29.88,SSE,151,3.0,5.0,49,0.00,,---,0.00,VWS V14.01,2013-05-19 22:08:00,
2013-05-19 18:11:00,83.6,62.4,29.88,ESE,118,1.0,3.0,49,0.00,,---,0.00,VWS V14.01,2013-05-19 22:11:00,
2013-05-19 18:12:00,83.6,63.0,29.88,East,97,3.0,4.0,50,0.00,,---,0.00,VWS V14.01,2013-05-19 22:12:00,
2013-05-19 18:13:00,83.6,62.4,29.88,SW,227,1.0,4.0,49,0.00,,---,0.00,VWS V14.01,2013-05-19 22:13:00,
2013-05-19 18:16:00,83.6,62.4,29.87,SSE,160,0.0,0.0,49,0.00,,---,0.00,VWS V14.01,2013-05-19 22:16:00,
2013-05-19 18:17:00,83.7,62.5,29.87,ENE,70,1.0,4.0,49,0.00,,---,0.00,VWS V14.01,2013-05-19 22:17:00,
2013-05-19 18:18:00,83.7,62.5,29.87,SE,133,4.0,5.0,49,0.00,,---,0.00,VWS V14.01,2013-05-19 22:18:00,
2013-05-19 18:19:00,83.7,62.0,29.87,SSE,151,3.0,5.0,48,0.00,,---,0.00,VWS V14.01,2013-05-19 22:19:00,
2013-05-19 18:21:00,83.6,62.4,29.88,SSW,198,2.0,5.0,49,0.00,,---,0.00,VWS V14.01,2013-05-19 22:21:00,
2013-05-19 18:23:00,83.6,62.4,29.88,SW,226,2.0,2.0,49,0.00,,---,0.00,VWS V14.01,2013-05-19 22:23:00,
2013-05-19 18:24:00,83.7,62.5,29.88,South,184,3.0,10.0,49,0.00,,---,0.00,VWS V14.01,2013-05-19 22:24:00,
2013-05-19 18:26:00,83.5,62.9,29.88,SSW,200,1.0,5.0,50,0.00,,---,0.00,VWS V14.01,2013-05-19 22:26:00,
2013-05-19 18:28:00,83.5,62.9,29.88,NNE,33,0.0,2.0,50,0.00,,---,0.00,VWS V14.01,2013-05-19 22:28:00,
2013-05-19 18:29:00,83.6,63.0,29.88,WNW,291,2.0,2.0,50,0.00,,---,0.00,VWS V14.01,2013-05-19 22:29:00,
2013-05-19 18:31:00,83.6,62.4,29.88,ESE,120,2.0,3.0,49,0.00,,---,0.00,VWS V14.01,2013-05-19 22:31:00,
2013-05-19 18:33:00,83.5,62.9,29.88,SE,139,0.0,0.0,50,0.00,,---,0.00,VWS V14.01,2013-05-19 22:33:00,
2013-05-19 18:34:00,83.5,62.9,29.88,SSE,156,7.0,7.0,50,0.00,,---,0.00,VWS V14.01,2013-05-19 22:34:00,
2013-05-19 18:36:00,83.5,63.5,29.88,SW,228,1.0,2.0,51,0.00,,---,0.00,VWS V14.01,2013-05-19 22:36:00,
2013-05-19 18:38:00,83.5,62.3,29.88,ENE,57,1.0,3.0,49,0.00,,---,0.00,VWS V14.01,2013-05-19 22:38:00,
2013-05-19 18:39:00,83.5,62.9,29.88,SW,229,3.0,3.0,50,0.00,,---,0.00,VWS V14.01,2013-05-19 22:39:00,
2013-05-19 18:40:00,83.5,62.3,29.88,SSE,163,5.0,5.0,49,0.00,,---,0.00,VWS V14.01,2013-05-19 22:40:00,
2013-05-19 18:41:00,83.4,62.8,29.88,SE,131,5.0,6.0,50,0.00,,---,0.00,VWS V14.01,2013-05-19 22:41:00,
2013-05-19 18:43:00,83.2,63.2,29.88,ESE,120,1.0,3.0,51,0.00,,---,0.00,VWS V14.01,2013-05-19 22:43:00,
2013-05-19 18:44:00,83.1,63.1,29.88,ENE,67,1.0,1.0,51,0.00,,---,0.00,VWS V14.01,2013-05-19 22:44:00,
2013-05-19 18:45:00,83.1,63.1,29.88,SE,127,2.0,2.0,51,0.00,,---,0.00,VWS V14.01,2013-05-19 22:45:00,
2013-05-19 18:46:00,83.0,63.0,29.88,ESE,123,4.0,4.0,51,0.00,,---,0.00,VWS V14.01,2013-05-19 22:46:00,
2013-05-19 18:48:00,83.0,63.6,29.88,SW,231,0.0,0.0,52,0.00,,---,0.00,VWS V14.01,2013-05-19 22:48:00,
2013-05-19 18:49:00,83.0,63.0,29.88,SW,224,0.0,0.0,51,0.00,,---,0.00,VWS V14.01,2013-05-19 22:49:00,
2013-05-19 18:50:00,83.2,63.2,29.88,SW,217,2.0,3.0,51,0.00,,---,0.00,VWS V14.01,2013-05-19 22:50:00,
2013-05-19 18:51:00,83.2,62.7,29.88,South,180,2.0,2.0,50,0.00,,---,0.00,VWS V14.01,2013-05-19 22:51:00,
2013-05-19 18:54:00,83.3,63.3,29.88,South,191,4.0,4.0,51,0.00,,---,0.00,VWS V14.01,2013-05-19 22:54:00,
2013-05-19 18:55:00,83.3,63.3,29.88,SE,132,1.0,4.0,51,0.00,,---,0.00,VWS V14.01,2013-05-19 22:55:00,
2013-05-19 18:56:00,83.2,63.2,29.88,NW,306,0.0,4.0,51,0.00,,---,0.00,VWS V14.01,2013-05-19 22:56:00,
2013-05-19 18:59:00,83.0,63.0,29.88,SE,134,3.0,3.0,51,0.00,,---,0.00,VWS V14.01,2013-05-19 22:59:00,
2013-05-19 19:00:00,82.9,63.5,29.88,SE,127,2.0,3.0,52,0.00,,---,0.00,VWS V14.01,2013-05-19 23:00:00,
2013-05-19 19:01:00,82.8,63.4,29.88,East,96,1.0,4.0,52,0.00,,---,0.00,VWS V14.01,2013-05-19 23:01:00,
2013-05-19 19:04:00,82.6,63.2,29.88,SSE,162,1.0,2.0,52,0.00,,---,0.00,VWS V14.01,2013-05-19 23:04:00,
2013-05-19 19:05:00,82.6,63.2,29.88,SSE,168,3.0,4.0,52,0.00,,---,0.00,VWS V14.01,2013-05-19 23:05:00,
2013-05-19 19:06:00,82.5,63.1,29.88,ENE,60,4.0,4.0,52,0.00,,---,0.00,VWS V14.01,2013-05-19 23:06:00,
2013-05-19 19:07:00,82.4,63.0,29.88,SW,229,2.0,3.0,52,0.00,,---,0.00,VWS V14.01,2013-05-19 23:07:00,
2013-05-19 19:09:00,82.2,63.4,29.88,SW,226,2.0,2.0,53,0.00,,---,0.00,VWS V14.01,2013-05-19 23:09:00,
2013-05-19 19:10:00,82.2,63.4,29.88,ESE,108,1.0,2.0,53,0.00,,---,0.00,VWS V14.01,2013-05-19 23:10:00,
2013-05-19 19:11:00,82.1,63.3,29.88,East,86,1.0,6.0,53,0.00,,---,0.00,VWS V14.01,2013-05-19 23:11:00,
2013-05-19 19:12:00,82.0,63.2,29.88,SSW,205,3.0,4.0,53,0.00,,---,0.00,VWS V14.01,2013-05-19 23:12:00,
2013-05-19 19:14:00,81.8,63.0,29.88,SE,140,6.0,7.0,53,0.00,,---,0.00,VWS V14.01,2013-05-19 23:14:00,
2013-05-19 19:15:00,81.8,63.0,29.88,SSE,158,5.0,5.0,53,0.00,,---,0.00,VWS V14.01,2013-05-19 23:15:00,
2013-05-19 19:17:00,81.6,63.4,29.88,SE,141,0.0,1.0,54,0.00,,---,0.00,VWS V14.01,2013-05-19 23:17:00,
2013-05-19 19:20:00,81.5,63.3,29.88,East,94,2.0,2.0,54,0.00,,---,0.00,VWS V14.01,2013-05-19 23:20:00,
2013-05-19 19:22:00,81.4,63.2,29.88,SSE,150,2.0,5.0,54,0.00,,---,0.00,VWS V14.01,2013-05-19 23:22:00,
2013-05-19 19:25:00,81.0,63.3,29.88,SE,125,2.0,3.0,55,0.00,,---,0.00,VWS V14.01,2013-05-19 23:25:00,
2013-05-19 19:26:00,80.9,63.2,29.88,WSW,245,2.0,2.0,55,0.00,,---,0.00,VWS V14.01,2013-05-19 23:26:00,
2013-05-19 19:27:00,80.9,63.2,29.88,East,92,6.0,6.0,55,0.00,,---,0.00,VWS V14.01,2013-05-19 23:27:00,
2013-05-19 19:30:00,80.5,63.4,29.88,SSE,163,5.0,8.0,56,0.00,,---,0.00,VWS V14.01,2013-05-19 23:30:00,
2013-05-19 19:31:00,80.5,63.4,29.88,SSW,199,2.0,2.0,56,0.00,,---,0.00,VWS V14.01,2013-05-19 23:31:00,
2013-05-19 19:32:00,80.4,63.8,29.88,WSW,241,1.0,2.0,57,0.00,,---,0.00,VWS V14.01,2013-05-19 23:32:00,
2013-05-19 19:35:00,80.1,63.0,29.88,SSE,160,0.0,0.0,56,0.00,,---,0.00,VWS V14.01,2013-05-19 23:35:00,
2013-05-19 19:36:00,80.0,63.4,29.88,WNW,295,0.0,3.0,57,0.00,,---,0.00,VWS V14.01,2013-05-19 23:36:00,
2013-05-19 19:37:00,80.0,63.4,29.88,ESE,120,2.0,3.0,57,0.00,,---,0.00,VWS V14.01,2013-05-19 23:37:00,
2013-05-19 19:40:00,79.7,63.1,29.88,East,79,0.0,2.0,57,0.00,,---,0.00,VWS V14.01,2013-05-19 23:40:00,
2013-05-19 19:41:00,79.6,63.0,29.88,South,172,2.0,2.0,57,0.00,,---,0.00,VWS V14.01,2013-05-19 23:41:00,
2013-05-19 19:42:00,79.5,63.0,29.88,South,183,0.0,0.0,57,0.00,,---,0.00,VWS V14.01,2013-05-19 23:42:00,
2013-05-19 19:45:00,79.3,63.3,29.88,ENE,69,0.0,2.0,58,0.00,,---,0.00,VWS V14.01,2013-05-19 23:45:00,
2013-05-19 19:46:00,79.2,63.2,29.88,SE,146,0.0,0.0,58,0.00,,---,0.00,VWS V14.01,2013-05-19 23:46:00,
2013-05-19 19:47:00,79.2,63.2,29.88,East,101,1.0,2.0,58,0.00,,---,0.00,VWS V14.01,2013-05-19 23:47:00,
2013-05-19 19:50:00,79.0,63.5,29.88,East,101,1.0,3.0,59,0.00,,---,0.00,VWS V14.01,2013-05-19 23:50:00,
2013-05-19 19:51:00,79.0,63.5,29.88,NE,56,1.0,1.0,59,0.00,,---,0.00,VWS V14.01,2013-05-19 23:51:00,
2013-05-19 19:52:00,79.0,63.5,29.88,NE,55,0.0,0.0,59,0.00,,---,0.00,VWS V14.01,2013-05-19 23:52:00,
2013-05-19 19:55:00,78.8,63.3,29.88,SSE,158,4.0,6.0,59,0.00,,---,0.00,VWS V14.01,2013-05-19 23:55:00,
2013-05-19 19:56:00,78.7,63.2,29.88,ENE,74,3.0,3.0,59,0.00,,---,0.00,VWS V14.01,2013-05-19 23:56:00,
2013-05-19 19:57:00,78.6,63.1,29.88,ESE,105,3.0,4.0,59,0.00,,---,0.00,VWS V14.01,2013-05-19 23:57:00,
2013-05-19 20:01:00,78.4,63.4,29.88,South,190,0.0,2.0,60,0.00,,---,0.00,VWS V14.01,2013-05-20 00:01:00,
2013-05-19 20:02:00,78.3,63.3,29.88,SE,144,3.0,4.0,60,0.00,,---,0.00,VWS V14.01,2013-05-20 00:02:00,
2013-05-19 20:03:00,78.2,63.2,29.88,SE,145,1.0,4.0,60,0.00,,---,0.00,VWS V14.01,2013-05-20 00:03:00,
2013-05-19 20:06:00,78.0,63.5,29.88,ESE,116,2.0,3.0,61,0.00,,---,0.00,VWS V14.01,2013-05-20 00:06:00,
2013-05-19 20:07:00,77.9,63.4,29.88,WNW,286,0.0,1.0,61,0.00,,---,0.00,VWS V14.01,2013-05-20 00:07:00,
2013-05-19 20:08:00,77.8,63.3,29.88,West,273,0.0,1.0,61,0.00,,---,0.00,VWS V14.01,2013-05-20 00:08:00,
2013-05-19 20:11:00,77.6,63.1,29.88,SE,125,1.0,2.0,61,0.00,,---,0.00,VWS V14.01,2013-05-20 00:11:00,
2013-05-19 20:12:00,77.5,63.0,29.88,SSW,198,0.0,1.0,61,0.00,,---,0.00,VWS V14.01,2013-05-20 00:12:00,
2013-05-19 20:13:00,77.4,63.4,29.88,ESE,115,2.0,2.0,62,0.00,,---,0.00,VWS V14.01,2013-05-20 00:13:00,
2013-05-19 20:16:00,77.2,63.2,29.88,SSE,168,0.0,2.0,62,0.00,,---,0.00,VWS V14.01,2013-05-20 00:16:00,
2013-05-19 20:17:00,77.2,63.2,29.88,SSE,168,0.0,0.0,62,0.00,,---,0.00,VWS V14.01,2013-05-20 00:17:00,
2013-05-19 20:18:00,77.1,63.1,29.88,ESE,104,1.0,4.0,62,0.00,,---,0.00,VWS V14.01,2013-05-20 00:18:00,
2013-05-19 20:21:00,76.9,63.4,29.88,SE,130,1.0,5.0,63,0.00,,---,0.00,VWS V14.01,2013-05-20 00:21:00,
2013-05-19 20:22:00,76.9,63.4,29.88,ENE,67,0.0,5.0,63,0.00,,---,0.00,VWS V14.01,2013-05-20 00:22:00,
2013-05-19 20:23:00,76.8,63.3,29.88,SW,235,0.0,4.0,63,0.00,,---,0.00,VWS V14.01,2013-05-20 00:23:00,
2013-05-19 20:24:00,76.8,63.3,29.88,SSW,196,0.0,4.0,63,0.00,,---,0.00,VWS V14.01,2013-05-20 00:24:00,
2013-05-19 20:26:00,76.6,63.1,29.88,SSE,164,1.0,3.0,63,0.00,,---,0.00,VWS V14.01,2013-05-20 00:26:00,
2013-05-19 20:27:00,76.5,63.0,29.88,SSE,154,0.0,0.0,63,0.00,,---,0.00,VWS V14.01,2013-05-20 00:27:00,
2013-05-19 20:28:00,76.4,63.3,29.88,NE,40,1.0,5.0,64,0.00,,---,0.00,VWS V14.01,2013-05-20 00:28:00,
2013-05-19 20:29:00,76.3,63.2,29.88,ESE,114,2.0,2.0,64,0.00,,---,0.00,VWS V14.01,2013-05-20 00:29:00,
2013-05-19 20:31:00,76.1,63.0,29.88,SSW,197,0.0,1.0,64,0.00,,---,0.00,VWS V14.01,2013-05-20 00:31:00,
2013-05-19 20:32:00,76.1,63.0,29.88,SW,229,1.0,1.0,64,0.00,,---,0.00,VWS V14.01,2013-05-20 00:32:00,
2013-05-19 20:34:00,76.0,63.0,29.88,SW,214,1.0,1.0,64,0.00,,---,0.00,VWS V14.01,2013-05-20 00:34:00,
2013-05-19 20:37:00,75.8,63.2,29.88,NE,52,0.0,0.0,65,0.00,,---,0.00,VWS V14.01,2013-05-20 00:37:00,
2013-05-19 20:39:00,75.7,63.1,29.88,SSE,150,0.0,0.0,65,0.00,,---,0.00,VWS V14.01,2013-05-20 00:39:00,
2013-05-19 20:42:00,75.4,63.3,29.88,ESE,108,0.0,1.0,66,0.00,,---,0.00,VWS V14.01,2013-05-20 00:42:00,
2013-05-19 20:44:00,75.3,63.2,29.88,South,174,0.0,1.0,66,0.00,,---,0.00,VWS V14.01,2013-05-20 00:44:00,
2013-05-19 20:47:00,75.0,62.9,29.88,SW,223,1.0,1.0,66,0.00,,---,0.00,VWS V14.01,2013-05-20 00:47:00,
2013-05-19 20:49:00,74.9,63.2,29.88,SSE,148,0.0,0.0,67,0.00,,---,0.00,VWS V14.01,2013-05-20 00:49:00,
2013-05-19 20:52:00,74.7,63.0,29.88,SE,132,3.0,3.0,67,0.00,,---,0.00,VWS V14.01,2013-05-20 00:52:00,
2013-05-19 20:54:00,74.5,62.8,29.88,SSE,147,3.0,4.0,67,0.00,,---,0.00,VWS V14.01,2013-05-20 00:54:00,
2013-05-19 20:57:00,74.4,63.2,29.88,ESE,118,1.0,3.0,68,0.00,,---,0.00,VWS V14.01,2013-05-20 00:57:00,
2013-05-19 20:59:00,74.2,63.0,29.88,SE,131,2.0,5.0,68,0.00,,---,0.00,VWS V14.01,2013-05-20 00:59:00,
2013-05-19 21:02:00,74.1,62.9,29.88,SE,144,1.0,2.0,68,0.00,,---,0.00,VWS V14.01,2013-05-20 01:02:00,
2013-05-19 21:04:00,74.0,62.8,29.88,East,87,2.0,3.0,68,0.00,,---,0.00,VWS V14.01,2013-05-20 01:04:00,
2013-05-19 21:05:00,74.0,62.8,29.88,East,99,2.0,2.0,68,0.00,,---,0.00,VWS V14.01,2013-05-20 01:05:00,
2013-05-19 21:07:00,73.8,62.6,29.88,West,269,1.0,1.0,68,0.00,,---,0.00,VWS V14.01,2013-05-20 01:07:00,
2013-05-19 21:08:00,73.8,63.0,29.88,SSW,192,1.0,1.0,69,0.00,,---,0.00,VWS V14.01,2013-05-20 01:08:00,
2013-05-19 21:09:00,73.7,62.9,29.88,ESE,115,2.0,2.0,69,0.00,,---,0.00,VWS V14.01,2013-05-20 01:09:00,
2013-05-19 21:10:00,73.6,62.8,29.88,ENE,78,0.0,1.0,69,0.00,,---,0.00,VWS V14.01,2013-05-20 01:10:00,
2013-05-19 21:12:00,73.4,62.6,29.88,SSE,165,1.0,1.0,69,0.00,,---,0.00,VWS V14.01,2013-05-20 01:12:00,
2013-05-19 21:13:00,73.4,62.6,29.88,SSE,160,0.0,1.0,69,0.00,,---,0.00,VWS V14.01,2013-05-20 01:13:00,
2013-05-19 21:14:00,73.3,62.5,29.88,SSE,147,0.0,1.0,69,0.00,,---,0.00,VWS V14.01,2013-05-20 01:14:00,
2013-05-19 21:15:00,73.2,62.4,29.88,SE,127,4.0,4.0,69,0.00,,---,0.00,VWS V14.01,2013-05-20 01:15:00,
2013-05-19 21:18:00,73.1,62.7,29.88,SE,129,1.0,3.0,70,0.00,,---,0.00,VWS V14.01,2013-05-20 01:18:00,
2013-05-19 21:19:00,73.0,62.7,29.88,ESE,116,1.0,3.0,70,0.00,,---,0.00,VWS V14.01,2013-05-20 01:19:00,
2013-05-19 21:20:00,73.0,62.7,29.88,SSE,163,0.0,0.0,70,0.00,,---,0.00,VWS V14.01,2013-05-20 01:20:00,
2013-05-19 21:23:00,72.8,62.5,29.88,SE,146,0.0,3.0,70,0.00,,---,0.00,VWS V14.01,2013-05-20 01:23:00,
2013-05-19 21:24:00,72.7,62.8,29.89,SE,139,0.0,2.0,71,0.00,,---,0.00,VWS V14.01,2013-05-20 01:24:00,
2013-05-19 21:25:00,72.7,62.8,29.88,SE,139,0.0,0.0,71,0.00,,---,0.00,VWS V14.01,2013-05-20 01:25:00,
2013-05-19 21:28:00,72.5,62.6,29.89,SE,144,3.0,3.0,71,0.00,,---,0.00,VWS V14.01,2013-05-20 01:28:00,
2013-05-19 21:29:00,72.4,62.5,29.88,ENE,64,1.0,3.0,71,0.00,,---,0.00,VWS V14.01,2013-05-20 01:29:00,
2013-05-19 21:30:00,72.4,62.5,29.88,NE,56,2.0,2.0,71,0.00,,---,0.00,VWS V14.01,2013-05-20 01:30:00,
2013-05-19 21:33:00,72.2,62.3,29.89,SE,134,1.0,2.0,71,0.00,,---,0.00,VWS V14.01,2013-05-20 01:33:00,
2013-05-19 21:34:00,72.2,62.3,29.89,ESE,108,0.0,1.0,71,0.00,,---,0.00,VWS V14.01,2013-05-20 01:34:00,
2013-05-19 21:35:00,72.2,62.3,29.89,ESE,120,1.0,1.0,71,0.00,,---,0.00,VWS V14.01,2013-05-20 01:35:00,
2013-05-19 21:38:00,72.1,62.2,29.89,SSE,153,2.0,2.0,71,0.00,,---,0.00,VWS V14.01,2013-05-20 01:38:00,
2013-05-19 21:40:00,72.0,62.1,29.89,SE,143,1.0,5.0,71,0.00,,---,0.00,VWS V14.01,2013-05-20 01:40:00,
2013-05-19 21:41:00,72.0,62.5,29.89,SW,215,1.0,4.0,72,0.00,,---,0.00,VWS V14.01,2013-05-20 01:41:00,
2013-05-19 21:43:00,71.8,62.3,29.89,SE,130,1.0,1.0,72,0.00,,---,0.00,VWS V14.01,2013-05-20 01:43:00,
2013-05-19 21:45:00,71.7,62.2,29.89,South,178,0.0,0.0,72,0.00,,---,0.00,VWS V14.01,2013-05-20 01:45:00,
2013-05-19 21:46:00,71.7,62.2,29.89,WSW,246,1.0,1.0,72,0.00,,---,0.00,VWS V14.01,2013-05-20 01:46:00,
2013-05-19 21:48:00,71.5,62.0,29.89,ESE,119,2.0,3.0,72,0.00,,---,0.00,VWS V14.01,2013-05-20 01:48:00,
2013-05-19 21:49:00,71.5,62.0,29.89,East,93,1.0,3.0,72,0.00,,---,0.00,VWS V14.01,2013-05-20 01:49:00,
2013-05-19 21:50:00,71.4,61.9,29.89,East,91,0.0,0.0,72,0.00,,---,0.00,VWS V14.01,2013-05-20 01:50:00,
2013-05-19 21:51:00,71.4,62.3,29.89,East,96,2.0,2.0,73,0.00,,---,0.00,VWS V14.01,2013-05-20 01:51:00,
2013-05-19 21:53:00,71.2,62.1,29.89,South,182,2.0,2.0,73,0.00,,---,0.00,VWS V14.01,2013-05-20 01:53:00,
2013-05-19 21:54:00,71.2,62.1,29.89,South,174,1.0,2.0,73,0.00,,---,0.00,VWS V14.01,2013-05-20 01:54:00,
2013-05-19 21:55:00,71.2,62.1,29.89,South,170,1.0,1.0,73,0.00,,---,0.00,VWS V14.01,2013-05-20 01:55:00,
2013-05-19 21:56:00,71.1,62.0,29.89,SSE,163,1.0,1.0,73,0.00,,---,0.00,VWS V14.01,2013-05-20 01:56:00,
2013-05-19 21:58:00,71.0,61.9,29.89,SSE,149,1.0,2.0,73,0.00,,---,0.00,VWS V14.01,2013-05-20 01:58:00,
2013-05-19 21:59:00,71.0,61.9,29.89,SSE,148,0.0,2.0,73,0.00,,---,0.00,VWS V14.01,2013-05-20 01:59:00,
2013-05-19 22:00:00,70.9,61.8,29.89,ESE,116,0.0,1.0,73,0.00,,---,0.00,VWS V14.01,2013-05-20 02:00:00,
2013-05-19 22:01:00,70.8,61.7,29.89,ESE,104,3.0,3.0,73,0.00,,---,0.00,VWS V14.01,2013-05-20 02:01:00,
2013-05-19 22:04:00,70.7,61.6,29.89,SE,131,1.0,2.0,73,0.00,,---,0.00,VWS V14.01,2013-05-20 02:04:00,
2013-05-19 22:05:00,70.7,61.6,29.89,NNW,342,1.0,2.0,73,0.00,,---,0.00,VWS V14.01,2013-05-20 02:05:00,
2013-05-19 22:06:00,70.6,61.5,29.89,SSE,149,3.0,6.0,73,0.00,,---,0.00,VWS V14.01,2013-05-20 02:06:00,
2013-05-19 22:09:00,70.5,61.4,29.89,ESE,119,2.0,4.0,73,0.00,,---,0.00,VWS V14.01,2013-05-20 02:09:00,
2013-05-19 22:10:00,70.4,61.3,29.89,ESE,103,0.0,2.0,73,0.00,,---,0.00,VWS V14.01,2013-05-20 02:10:00,
2013-05-19 22:11:00,70.4,61.3,29.89,East,94,1.0,3.0,73,0.00,,---,0.00,VWS V14.01,2013-05-20 02:11:00,
2013-05-19 22:14:00,70.2,61.5,29.89,SE,127,1.0,2.0,74,0.00,,---,0.00,VWS V14.01,2013-05-20 02:14:00,
2013-05-19 22:15:00,70.1,61.4,29.89,NE,49,1.0,2.0,74,0.00,,---,0.00,VWS V14.01,2013-05-20 02:15:00,
2013-05-19 22:16:00,70.0,61.3,29.89,ESE,106,1.0,4.0,74,0.00,,---,0.00,VWS V14.01,2013-05-20 02:16:00,
2013-05-19 22:19:00,69.9,61.2,29.89,SE,141,2.0,3.0,74,0.00,,---,0.00,VWS V14.01,2013-05-20 02:19:00,
2013-05-19 22:20:00,69.8,61.2,29.89,SE,127,0.0,3.0,74,0.00,,---,0.00,VWS V14.01,2013-05-20 02:20:00,
2013-05-19 22:21:00,69.7,61.0,29.89,ENE,76,1.0,8.0,74,0.00,,---,0.00,VWS V14.01,2013-05-20 02:21:00,
2013-05-19 22:24:00,69.6,61.0,29.89,SW,217,3.0,3.0,74,0.00,,---,0.00,VWS V14.01,2013-05-20 02:24:00,
2013-05-19 22:25:00,69.5,60.9,29.89,West,264,0.0,3.0,74,0.00,,---,0.00,VWS V14.01,2013-05-20 02:25:00,
2013-05-19 22:27:00,69.4,60.8,29.89,South,180,3.0,3.0,74,0.00,,---,0.00,VWS V14.01,2013-05-20 02:27:00,
2013-05-19 22:29:00,69.3,60.7,29.89,SSW,210,0.0,0.0,74,0.00,,---,0.00,VWS V14.01,2013-05-20 02:29:00,
2013-05-19 22:30:00,69.2,60.6,29.89,ESE,120,1.0,1.0,74,0.00,,---,0.00,VWS V14.01,2013-05-20 02:30:00,
2013-05-19 22:31:00,69.2,60.6,29.89,ENE,66,3.0,4.0,74,0.00,,---,0.00,VWS V14.01,2013-05-20 02:31:00,
2013-05-19 22:32:00,69.1,60.8,29.89,SSE,151,2.0,2.0,75,0.00,,---,0.00,VWS V14.01,2013-05-20 02:32:00,
2013-05-19 22:34:00,69.0,60.8,29.89,SSE,158,2.0,4.0,75,0.00,,---,0.00,VWS V14.01,2013-05-20 02:34:00,
2013-05-19 22:35:00,69.0,60.8,29.89,SSE,155,0.0,1.0,75,0.00,,---,0.00,VWS V14.01,2013-05-20 02:35:00,
2013-05-19 22:36:00,68.9,60.7,29.89,SSE,148,0.0,1.0,75,0.00,,---,0.00,VWS V14.01,2013-05-20 02:36:00,
2013-05-19 22:37:00,68.8,60.6,29.89,SE,145,1.0,2.0,75,0.00,,---,0.00,VWS V14.01,2013-05-20 02:37:00,
2013-05-19 22:39:00,68.7,60.5,29.89,SE,144,0.0,1.0,75,0.00,,---,0.00,VWS V14.01,2013-05-20 02:39:00,
2013-05-19 22:40:00,68.6,60.7,29.89,East,85,0.0,1.0,76,0.00,,---,0.00,VWS V14.01,2013-05-20 02:40:00,
2013-05-19 22:41:00,68.6,60.7,29.89,East,98,2.0,3.0,76,0.00,,---,0.00,VWS V14.01,2013-05-20 02:41:00,
2013-05-19 22:42:00,68.5,60.6,29.90,NW,317,0.0,5.0,76,0.00,,---,0.00,VWS V14.01,2013-05-20 02:42:00,
2013-05-19 22:44:00,68.5,60.6,29.90,East,86,1.0,3.0,76,0.00,,---,0.00,VWS V14.01,2013-05-20 02:44:00,
2013-05-19 22:45:00,68.5,60.6,29.90,East,88,0.0,1.0,76,0.00,,---,0.00,VWS V14.01,2013-05-20 02:45:00,
2013-05-19 22:46:00,68.4,60.5,29.90,ENE,69,1.0,1.0,76,0.00,,---,0.00,VWS V14.01,2013-05-20 02:46:00,
2013-05-19 22:47:00,68.4,60.5,29.90,ESE,112,2.0,4.0,76,0.00,,---,0.00,VWS V14.01,2013-05-20 02:47:00,
2013-05-19 22:49:00,68.3,60.5,29.90,SSE,151,1.0,4.0,76,0.00,,---,0.00,VWS V14.01,2013-05-20 02:49:00,
2013-05-19 22:50:00,68.3,60.5,29.89,East,101,3.0,5.0,76,0.00,,---,0.00,VWS V14.01,2013-05-20 02:50:00,
2013-05-19 22:51:00,68.2,60.3,29.90,SE,130,0.0,2.0,76,0.00,,---,0.00,VWS V14.01,2013-05-20 02:51:00,
2013-05-19 22:52:00,68.2,60.7,29.89,SE,136,0.0,3.0,77,0.00,,---,0.00,VWS V14.01,2013-05-20 02:52:00,
2013-05-19 22:54:00,68.0,60.5,29.89,South,186,0.0,1.0,77,0.00,,---,0.00,VWS V14.01,2013-05-20 02:54:00,
2013-05-19 22:55:00,68.0,60.5,29.89,SSE,163,0.0,0.0,77,0.00,,---,0.00,VWS V14.01,2013-05-20 02:55:00,
2013-05-19 22:56:00,67.9,60.4,29.89,NE,42,0.0,0.0,77,0.00,,---,0.00,VWS V14.01,2013-05-20 02:56:00,
2013-05-19 22:58:00,67.9,60.4,29.89,ESE,111,1.0,4.0,77,0.00,,---,0.00,VWS V14.01,2013-05-20 02:58:00,
2013-05-19 22:59:00,67.7,60.2,29.89,SE,134,0.0,2.0,77,0.00,,---,0.00,VWS V14.01,2013-05-20 02:59:00,
2013-05-19 23:00:00,67.7,60.2,29.90,SE,134,0.0,1.0,77,0.00,,---,0.00,VWS V14.01,2013-05-20 03:00:00,
2013-05-19 23:01:00,67.7,60.6,29.90,East,88,2.0,3.0,78,0.00,,---,0.00,VWS V14.01,2013-05-20 03:01:00,
2013-05-19 23:03:00,67.6,60.5,29.90,East,93,1.0,2.0,78,0.00,,---,0.00,VWS V14.01,2013-05-20 03:03:00,
2013-05-19 23:05:00,67.5,60.4,29.90,SSE,147,3.0,4.0,78,0.00,,---,0.00,VWS V14.01,2013-05-20 03:05:00,
2013-05-19 23:06:00,67.5,60.4,29.90,NNE,31,1.0,1.0,78,0.00,,---,0.00,VWS V14.01,2013-05-20 03:06:00,
2013-05-19 23:08:00,67.5,60.4,29.90,ESE,109,2.0,6.0,78,0.00,,---,0.00,VWS V14.01,2013-05-20 03:08:00,
2013-05-19 23:10:00,67.4,60.3,29.90,SSE,168,1.0,1.0,78,0.00,,---,0.00,VWS V14.01,2013-05-20 03:10:00,
2013-05-19 23:11:00,67.4,60.3,29.90,SW,232,0.0,2.0,78,0.00,,---,0.00,VWS V14.01,2013-05-20 03:11:00,
2013-05-19 23:12:00,67.4,60.3,29.90,SE,130,0.0,3.0,78,0.00,,---,0.00,VWS V14.01,2013-05-20 03:12:00,
2013-05-19 23:13:00,67.3,60.2,29.90,East,93,2.0,3.0,78,0.00,,---,0.00,VWS V14.01,2013-05-20 03:13:00,
2013-05-19 23:15:00,67.3,60.2,29.90,SE,141,1.0,3.0,78,0.00,,---,0.00,VWS V14.01,2013-05-20 03:15:00,
2013-05-19 23:16:00,67.2,60.5,29.90,SSE,167,4.0,4.0,79,0.00,,---,0.00,VWS V14.01,2013-05-20 03:16:00,
2013-05-19 23:17:00,67.2,60.5,29.90,ESE,115,1.0,3.0,79,0.00,,---,0.00,VWS V14.01,2013-05-20 03:17:00,
2013-05-19 23:18:00,67.2,60.5,29.90,ENE,60,1.0,4.0,79,0.00,,---,0.00,VWS V14.01,2013-05-20 03:18:00,
2013-05-19 23:20:00,67.1,60.4,29.90,SE,142,0.0,1.0,79,0.00,,---,0.00,VWS V14.01,2013-05-20 03:20:00,
2013-05-19 23:21:00,67.0,60.3,29.90,ENE,75,1.0,1.0,79,0.00,,---,0.00,VWS V14.01,2013-05-20 03:21:00,
2013-05-19 23:22:00,67.0,60.3,29.90,ESE,113,0.0,0.0,79,0.00,,---,0.00,VWS V14.01,2013-05-20 03:22:00,
2013-05-19 23:23:00,67.0,60.3,29.90,East,83,0.0,0.0,79,0.00,,---,0.00,VWS V14.01,2013-05-20 03:23:00,
2013-05-19 23:25:00,66.9,60.2,29.90,East,89,0.0,0.0,79,0.00,,---,0.00,VWS V14.01,2013-05-20 03:25:00,
2013-05-19 23:26:00,66.9,60.2,29.90,SE,127,0.0,0.0,79,0.00,,---,0.00,VWS V14.01,2013-05-20 03:26:00,
2013-05-19 23:27:00,66.8,60.1,29.90,ESE,116,1.0,1.0,79,0.00,,---,0.00,VWS V14.01,2013-05-20 03:27:00,
2013-05-19 23:28:00,66.8,60.1,29.90,ESE,123,1.0,1.0,79,0.00,,---,0.00,VWS V14.01,2013-05-20 03:28:00,
2013-05-19 23:30:00,66.7,60.3,29.90,South,175,2.0,3.0,80,0.00,,---,0.00,VWS V14.01,2013-05-20 03:30:00,
2013-05-19 23:31:00,66.7,60.3,29.90,SE,144,0.0,2.0,80,0.00,,---,0.00,VWS V14.01,2013-05-20 03:31:00,
2013-05-19 23:32:00,66.6,60.2,29.90,SE,138,0.0,0.0,80,0.00,,---,0.00,VWS V14.01,2013-05-20 03:32:00,
2013-05-19 23:33:00,66.6,60.2,29.90,SE,137,1.0,1.0,80,0.00,,---,0.00,VWS V14.01,2013-05-20 03:33:00,
2013-05-19 23:35:00,66.5,60.2,29.90,SE,133,0.0,0.0,80,0.00,,---,0.00,VWS V14.01,2013-05-20 03:35:00,
2013-05-19 23:37:00,66.4,60.0,29.90,SE,135,0.0,0.0,80,0.00,,---,0.00,VWS V14.01,2013-05-20 03:37:00,
2013-05-19 23:38:00,66.3,60.0,29.90,SSE,147,0.0,0.0,80,0.00,,---,0.00,VWS V14.01,2013-05-20 03:38:00,
2013-05-19 23:40:00,66.2,60.2,29.90,SSE,157,1.0,1.0,81,0.00,,---,0.00,VWS V14.01,2013-05-20 03:40:00,
2013-05-19 23:41:00,66.2,60.2,29.90,SE,132,0.0,1.0,81,0.00,,---,0.00,VWS V14.01,2013-05-20 03:41:00,
2013-05-19 23:42:00,66.2,60.2,29.90,SE,132,0.0,0.0,81,0.00,,---,0.00,VWS V14.01,2013-05-20 03:42:00,
2013-05-19 23:43:00,66.1,60.1,29.91,WSW,247,0.0,2.0,81,0.00,,---,0.00,VWS V14.01,2013-05-20 03:43:00,
2013-05-19 23:45:00,66.0,60.0,29.91,WSW,245,0.0,1.0,81,0.00,,---,0.00,VWS V14.01,2013-05-20 03:45:00,
2013-05-19 23:46:00,66.0,60.0,29.91,South,174,0.0,1.0,81,0.00,,---,0.00,VWS V14.01,2013-05-20 03:46:00,
2013-05-19 23:47:00,66.0,60.0,29.91,WSW,246,0.0,1.0,81,0.00,,---,0.00,VWS V14.01,2013-05-20 03:47:00,
2013-05-19 23:48:00,66.0,60.0,29.91,WSW,246,0.0,0.0,81,0.00,,---,0.00,VWS V14.01,2013-05-20 03:48:00,
2013-05-19 23:49:00,65.9,59.9,29.91,WSW,246,0.0,0.0,81,0.00,,---,0.00,VWS V14.01,2013-05-20 03:49:00,
2013-05-19 23:51:00,65.8,59.8,29.91,WSW,246,0.0,0.0,81,0.00,,---,0.00,VWS V14.01,2013-05-20 03:51:00,
2013-05-19 23:52:00,65.8,59.8,29.91,WSW,246,0.0,0.0,81,0.00,,---,0.00,VWS V14.01,2013-05-20 03:52:00,
2013-05-19 23:53:00,65.7,60.1,29.91,WSW,246,0.0,0.0,82,0.00,,---,0.00,VWS V14.01,2013-05-20 03:53:00,
2013-05-19 23:54:00,65.6,60.0,29.91,WSW,246,0.0,0.0,82,0.00,,---,0.00,VWS V14.01,2013-05-20 03:54:00,
2013-05-19 23:56:00,65.5,59.9,29.91,WSW,246,0.0,0.0,82,0.00,,---,0.00,VWS V14.01,2013-05-20 03:56:00,
2013-05-19 23:57:00,65.4,59.8,29.91,WSW,246,0.0,0.0,82,0.00,,---,0.00,VWS V14.01,2013-05-20 03:57:00,
2013-05-19 23:58:00,65.4,59.8,29.91,WSW,246,0.0,0.0,82,0.00,,---,0.00,VWS V14.01,2013-05-20 03:58:00,
2013-05-19 23:59:00,65.3,59.7,29.91,ESE,110,0.0,1.0,82,0.00,,---,0.00,VWS V14.01,2013-05-20 03:59:00,